GW2826 Weather Reports


time (UTC)temp
C
wind
direction
speed
KPH
gust
KPH
rain 1hr
cm
rain 24hr
cm
rain mn
cm
humidity
%
barometer
mb
20260506051303 4 80 11.3 22.5 0.00 0.00 0.00 84 1004.8
20260506051203 4 82 11.3 22.5 0.00 0.00 0.00 84 1004.6
20260506051103 4 83 11.3 22.5 0.00 0.00 0.00 84 1004.6
20260506051004 4 82 11.3 22.5 0.00 0.00 0.00 84 1004.7
20260506050903 4 84 11.3 17.7 0.00 0.00 0.00 84 1004.6
20260506050804 4 82 11.3 17.7 0.00 0.00 0.00 84 1004.4
20260506050725 4 82 9.7 17.7 0.00 0.00 0.00 84 1004.7
20260506050604 4 82 9.7 14.5 0.00 0.00 0.00 85 1004.8
20260506050504 4 82 9.7 14.5 0.00 0.00 0.00 85 1004.7
20260506050404 4 82 9.7 14.5 0.00 0.00 0.00 85 1004.7
20260506050324 4 82 9.7 14.5 0.00 0.00 0.00 85 1004.7
20260506050203 4 81 9.7 14.5 0.00 0.00 0.00 84 1004.8
20260506050125 4 80 8.0 14.5 0.00 0.00 0.00 85 1004.6
20260506045104 4 79 9.7 14.5 0.00 0.00 0.00 85 1004.5
20260506045003 4 78 9.7 14.5 0.00 0.00 0.00 85 1004.6
20260506044904 4 78 9.7 14.5 0.00 0.00 0.00 85 1004.7
20260506044804 3 78 9.7 14.5 0.00 0.00 0.00 86 1004.8
20260506044703 3 77 8.0 12.9 0.00 0.00 0.00 87 1004.8
20260506044604 3 78 8.0 12.9 0.00 0.00 0.00 87 1004.5
20260506044525 3 78 8.0 12.9 0.00 0.00 0.00 87 1004.4
20260506044403 3 77 8.0 12.9 0.00 0.00 0.00 88 1004.7
20260506044304 3 78 8.0 16.1 0.00 0.00 0.00 88 1004.6
20260506044204 3 80 8.0 16.1 0.00 0.00 0.00 88 1004.7
20260506044104 3 79 8.0 16.1 0.00 0.00 0.00 88 1004.7
20260506044003 3 80 9.7 16.1 0.00 0.00 0.00 88 1004.8
20260506043904 3 80 9.7 16.1 0.00 0.00 0.00 88 1004.6
20260506043804 4 79 9.7 16.1 0.00 0.00 0.00 87 1004.7
20260506043703 4 80 9.7 16.1 0.00 0.00 0.00 87 1004.7
20260506043604 4 81 8.0 16.1 0.00 0.00 0.00 87 1004.5
20260506043524 4 80 8.0 16.1 0.00 0.00 0.00 87 1004.7
20260506043404 4 81 8.0 16.1 0.00 0.00 0.00 87 1004.6
20260506043303 3 81 8.0 16.1 0.00 0.00 0.00 87 1004.6
20260506043204 3 79 8.0 11.3 0.00 0.00 0.00 88 1004.6
20260506043103 3 81 8.0 11.3 0.00 0.00 0.00 88 1004.6
20260506043004 3 81 6.4 11.3 0.00 0.00 0.00 88 1004.7
20260506042903 3 82 6.4 11.3 0.00 0.00 0.00 88 1004.6
20260506042804 3 84 6.4 11.3 0.00 0.00 0.00 88 1004.6
20260506042703 3 85 6.4 11.3 0.00 0.00 0.00 88 1004.8
20260506042604 3 85 6.4 11.3 0.00 0.00 0.00 88 1004.5
20260506042504 3 86 4.8 11.3 0.00 0.00 0.00 88 1004.6
20260506042404 3 87 4.8 11.3 0.00 0.00 0.00 88 1004.6
20260506042305 3 87 4.8 11.3 0.00 0.00 0.00 88 1004.6
20260506042225 3 90 4.8 11.3 0.00 0.00 0.00 88 1004.7
20260506042124 3 90 3.2 9.7 0.00 0.00 0.00 88 1004.7
20260506042003 3 92 3.2 6.4 0.00 0.00 0.00 88 1004.8
20260506041904 3 93 3.2 6.4 0.00 0.00 0.00 88 1004.7
20260506041803 3 93 3.2 6.4 0.00 0.00 0.00 88 1004.6
20260506041704 3 94 3.2 6.4 0.00 0.00 0.00 88 1004.6
20260506041604 3 94 3.2 9.7 0.00 0.00 0.00 89 1004.7
20260506041503 3 94 3.2 9.7 0.00 0.00 0.00 89 1004.8
20260506041403 3 94 3.2 9.7 0.00 0.00 0.00 89 1004.8
20260506041303 3 94 4.8 9.7 0.00 0.00 0.00 89 1004.7
20260506041204 3 92 4.8 9.7 0.00 0.00 0.00 89 1004.7
20260506041124 3 92 4.8 9.7 0.00 0.00 0.00 89 1004.7
20260506041003 3 89 4.8 9.7 0.00 0.00 0.00 89 1004.8
20260506040904 3 88 4.8 9.7 0.00 0.00 0.00 89 1004.6
20260506040803 3 88 4.8 9.7 0.00 0.00 0.00 89 1004.4
20260506040704 3 87 4.8 9.7 0.00 0.00 0.00 89 1004.8
20260506040603 3 87 4.8 9.7 0.00 0.00 0.00 89 1004.9
20260506040504 3 86 4.8 9.7 0.00 0.00 0.00 90 1004.7
20260506040403 3 85 4.8 9.7 0.00 0.00 0.00 90 1004.5
20260506040304 3 84 4.8 9.7 0.00 0.00 0.00 90 1004.7
20260506040204 3 83 4.8 9.7 0.00 0.00 0.00 90 1004.7
20260506040004 3 81 6.4 9.7 0.00 0.00 0.00 90 1004.6
20260506035904 3 80 6.4 11.3 0.00 0.00 0.00 90 1004.9
20260506035803 3 78 6.4 11.3 0.00 0.00 0.00 90 1004.6
20260506035703 3 79 6.4 11.3 0.00 0.00 0.00 90 1004.6
20260506035604 3 79 6.4 11.3 0.00 0.00 0.00 89 1004.8
20260506035503 3 79 6.4 11.3 0.00 0.00 0.00 89 1004.7
20260506035425 3 79 6.4 11.3 0.00 0.00 0.00 89 1004.8
20260506035306 4 79 6.4 11.3 0.00 0.00 0.00 89 1004.9
20260506035204 4 80 6.4 11.3 0.00 0.00 0.00 89 1004.6
20260506035103 4 81 6.4 11.3 0.00 0.00 0.00 89 1004.8
20260506035003 4 81 6.4 11.3 0.00 0.00 0.00 89 1004.7
20260506034904 4 83 6.4 11.3 0.00 0.00 0.00 89 1005.0
20260506034803 4 84 6.4 11.3 0.00 0.00 0.00 89 1004.8
20260506034724 4 83 6.4 11.3 0.00 0.00 0.00 89 1004.8
20260506034603 4 84 6.4 11.3 0.00 0.00 0.00 89 1004.9
20260506034503 4 84 6.4 11.3 0.00 0.00 0.00 89 1004.8
20260506034403 4 85 6.4 11.3 0.00 0.00 0.00 89 1004.8
20260506034304 4 85 6.4 11.3 0.00 0.00 0.00 89 1004.9
20260506034203 4 85 6.4 11.3 0.00 0.00 0.00 89 1004.9
20260506034103 4 84 6.4 11.3 0.00 0.00 0.00 89 1005.0
20260506034003 4 85 6.4 11.3 0.00 0.00 0.00 89 1005.0
20260506033904 4 84 6.4 11.3 0.00 0.00 0.00 89 1004.6
20260506033803 4 83 6.4 11.3 0.00 0.00 0.00 89 1004.9
20260506033704 4 83 6.4 11.3 0.00 0.00 0.00 89 1004.8
20260506033603 4 82 6.4 11.3 0.00 0.00 0.00 89 1005.0
20260506033504 4 81 6.4 11.3 0.00 0.00 0.00 89 1004.8
20260506033404 4 80 6.4 11.3 0.00 0.00 0.00 89 1004.8
20260506033324 4 80 6.4 9.7 0.00 0.00 0.00 89 1005.0
20260506033203 4 81 6.4 9.7 0.00 0.00 0.00 89 1005.0
20260506033103 4 79 6.4 9.7 0.00 0.00 0.00 89 1005.1
20260506033024 4 78 6.4 9.7 0.00 0.00 0.00 89 1004.8
20260506032903 4 79 6.4 9.7 0.00 0.00 0.00 89 1004.9
20260506032825 4 79 6.4 11.3 0.00 0.00 0.00 89 1004.9
20260506032703 4 79 6.4 12.9 0.00 0.00 0.00 88 1005.0
20260506032603 4 79 6.4 12.9 0.00 0.00 0.00 88 1005.0
20260506032525 4 78 6.4 12.9 0.00 0.00 0.00 88 1004.9
20260506032403 4 79 6.4 12.9 0.00 0.00 0.00 88 1005.2
20260506032305 4 79 8.0 12.9 0.00 0.00 0.00 88 1005.0
20260506032203 4 80 8.0 12.9 0.00 0.00 0.00 88 1005.0
20260506032103 4 80 8.0 12.9 0.00 0.00 0.00 88 1005.0
20260506032003 4 80 8.0 12.9 0.00 0.00 0.00 88 1005.0
20260506031903 4 79 8.0 12.9 0.00 0.00 0.00 88 1004.8
20260506031824 4 78 8.0 12.9 0.00 0.00 0.00 88 1004.9
20260506031704 4 78 8.0 12.9 0.00 0.00 0.00 88 1004.9
20260506031624 4 79 8.0 12.9 0.00 0.00 0.00 88 1004.9
20260506031504 4 78 8.0 12.9 0.00 0.00 0.00 88 1004.9
20260506031424 4 77 8.0 12.9 0.00 0.00 0.00 88 1004.9
20260506031303 4 76 8.0 12.9 0.00 0.00 0.00 87 1004.9
20260506031203 4 74 8.0 12.9 0.00 0.00 0.00 87 1004.9
20260506031103 4 73 8.0 12.9 0.00 0.00 0.00 87 1005.0
20260506031004 4 73 8.0 14.5 0.00 0.00 0.00 87 1004.9
20260506030904 4 73 8.0 14.5 0.00 0.00 0.00 87 1005.0
20260506030803 4 73 8.0 14.5 0.00 0.00 0.00 88 1004.7
20260506030703 4 74 8.0 14.5 0.00 0.00 0.00 88 1004.8
20260506030603 4 74 8.0 14.5 0.00 0.00 0.00 88 1004.8
20260506030504 4 74 8.0 14.5 0.00 0.00 0.00 88 1005.0
20260506030424 4 74 8.0 14.5 0.00 0.00 0.00 88 1004.8
20260506030304 4 75 8.0 14.5 0.00 0.00 0.00 88 1004.9
20260506030203 4 76 8.0 14.5 0.00 0.00 0.00 88 1004.8
20260506030103 4 76 8.0 14.5 0.00 0.00 0.00 88 1004.8
20260506030004 4 77 8.0 14.5 0.00 0.00 0.00 88 1005.0
20260506025903 4 78 8.0 14.5 0.00 0.00 0.00 88 1004.8
20260506025803 4 78 8.0 12.9 0.00 0.00 0.00 88 1004.9
20260506025703 4 78 8.0 12.9 0.00 0.00 0.00 88 1004.7
20260506025603 4 78 8.0 12.9 0.00 0.00 0.00 88 1004.8
20260506025503 4 78 8.0 12.9 0.00 0.00 0.00 88 1004.8
20260506025403 4 79 8.0 12.9 0.00 0.00 0.00 89 1005.0
20260506025305 4 79 8.0 11.3 0.00 0.00 0.00 89 1004.9
20260506025203 4 79 8.0 11.3 0.00 0.00 0.00 89 1005.1
20260506025124 4 79 8.0 11.3 0.00 0.00 0.00 89 1004.8
20260506025003 4 79 8.0 11.3 0.00 0.00 0.00 89 1005.0
20260506024903 4 78 8.0 11.3 0.00 0.00 0.00 89 1005.0
20260506024804 4 77 8.0 12.9 0.00 0.00 0.00 89 1004.8
20260506024703 4 77 8.0 12.9 0.00 0.00 0.00 89 1004.8
20260506024603 4 77 8.0 12.9 0.00 0.00 0.00 89 1004.7
20260506024503 4 77 8.0 12.9 0.00 0.00 0.00 89 1004.9
20260506024403 4 77 8.0 14.5 0.00 0.00 0.00 89 1004.8
20260506024303 4 76 8.0 14.5 0.00 0.00 0.00 90 1004.8
20260506024203 4 76 9.7 14.5 0.00 0.00 0.00 90 1004.8
20260506024103 4 77 9.7 14.5 0.00 0.00 0.00 90 1004.9
20260506024024 4 77 9.7 14.5 0.00 0.00 0.00 90 1004.8
20260506023903 4 77 9.7 14.5 0.00 0.00 0.00 90 1004.6
20260506023804 4 78 9.7 14.5 0.00 0.00 0.00 90 1004.8
20260506023703 4 78 9.7 14.5 0.00 0.00 0.00 90 1004.6
20260506023604 4 77 9.7 14.5 0.00 0.00 0.00 90 1004.9
20260506023503 4 78 9.7 14.5 0.00 0.00 0.00 90 1004.6
20260506023404 4 79 9.7 14.5 0.00 0.00 0.00 90 1004.8
20260506023303 4 80 9.7 14.5 0.00 0.00 0.00 90 1004.7
20260506023224 4 80 9.7 14.5 0.00 0.00 0.00 90 1004.7
20260506023103 4 80 9.7 14.5 0.00 0.00 0.00 89 1005.0
20260506023024 4 80 9.7 14.5 0.00 0.00 0.00 90 1004.6
20260506022903 4 79 9.7 14.5 0.00 0.00 0.00 89 1005.0
20260506022803 4 79 9.7 14.5 0.00 0.00 0.00 89 1004.9
20260506022703 4 78 9.7 16.1 0.00 0.00 0.00 89 1004.7
20260506022603 4 78 9.7 16.1 0.00 0.00 0.00 89 1004.8
20260506022504 4 78 9.7 16.1 0.00 0.00 0.00 89 1004.9
20260506022403 4 77 8.0 16.1 0.00 0.00 0.00 89 1004.9
20260506022305 4 76 8.0 16.1 0.00 0.00 0.00 89 1004.7
20260506022203 4 76 8.0 16.1 0.00 0.00 0.00 89 1004.9
20260506022104 4 76 8.0 16.1 0.00 0.00 0.00 89 1004.9
20260506022003 4 77 8.0 16.1 0.00 0.00 0.00 89 1004.8
20260506021903 4 78 8.0 16.1 0.00 0.00 0.00 89 1004.9
20260506021803 4 78 8.0 16.1 0.00 0.00 0.00 89 1004.9
20260506021704 4 80 8.0 16.1 0.00 0.00 0.00 89 1005.0
20260506021603 4 80 8.0 14.5 0.00 0.00 0.00 89 1005.0
20260506021503 4 80 8.0 14.5 0.00 0.00 0.00 89 1004.8
20260506021403 4 80 8.0 14.5 0.00 0.00 0.00 89 1004.7
20260506021303 4 79 8.0 14.5 0.00 0.00 0.00 89 1004.8
20260506021203 4 80 8.0 14.5 0.00 0.00 0.00 89 1004.9
20260506021103 4 78 9.7 14.5 0.00 0.00 0.00 89 1004.9
20260506021003 4 76 9.7 14.5 0.00 0.00 0.00 89 1005.0
20260506020924 4 75 8.0 14.5 0.00 0.00 0.00 89 1004.9
20260506020803 4 73 9.7 14.5 0.00 0.00 0.00 88 1004.9
20260506020703 4 70 8.0 14.5 0.00 0.00 0.00 88 1004.9
20260506020603 4 71 8.0 16.1 0.00 0.00 0.00 88 1005.0
20260506020503 4 70 8.0 16.1 0.00 0.00 0.00 88 1004.9
20260506020403 4 70 8.0 16.1 0.00 0.00 0.00 88 1005.0
20260506020303 4 69 8.0 16.1 0.00 0.00 0.00 88 1004.8
20260506020203 4 70 8.0 16.1 0.00 0.00 0.00 88 1004.8
20260506020104 4 69 8.0 16.1 0.00 0.00 0.00 88 1005.0
20260506020024 4 69 8.0 16.1 0.00 0.00 0.00 88 1004.9
20260506015903 4 71 8.0 16.1 0.00 0.00 0.00 88 1004.7
20260506015803 4 72 8.0 16.1 0.00 0.00 0.00 88 1005.0
20260506015724 4 73 8.0 16.1 0.00 0.00 0.00 88 1004.9
20260506015603 4 73 9.7 16.1 0.00 0.00 0.00 88 1004.8
20260506015525 4 73 9.7 16.1 0.00 0.00 0.00 88 1004.9
20260506015403 4 73 9.7 14.5 0.00 0.00 0.00 88 1005.0
20260506015305 4 75 9.7 14.5 0.00 0.00 0.00 88 1004.8
20260506015203 4 75 9.7 14.5 0.00 0.00 0.00 88 1004.7
20260506015103 4 75 8.0 14.5 0.00 0.00 0.00 88 1004.9
20260506015003 4 75 8.0 14.5 0.00 0.00 0.00 88 1004.9
20260506014903 4 74 8.0 11.3 0.00 0.00 0.00 89 1005.0
20260506014803 4 73 8.0 11.3 0.00 0.00 0.00 89 1004.9
20260506014724 4 72 6.4 11.3 0.00 0.00 0.00 89 1005.1
20260506014604 4 72 6.4 11.3 0.00 0.00 0.00 89 1004.7
20260506014503 4 73 6.4 11.3 0.00 0.00 0.00 89 1004.8
20260506014403 4 73 6.4 11.3 0.00 0.00 0.00 89 1004.8
20260506014303 4 72 6.4 11.3 0.00 0.00 0.00 89 1004.8
20260506014203 4 71 6.4 11.3 0.00 0.00 0.00 89 1004.8
20260506014103 4 72 6.4 11.3 0.00 0.00 0.00 90 1004.8
20260506014003 4 73 6.4 11.3 0.00 0.00 0.00 90 1004.9
20260506013903 4 72 6.4 11.3 0.00 0.00 0.00 90 1004.9
20260506013803 4 74 6.4 11.3 0.00 0.00 0.00 90 1004.8
20260506013703 4 74 6.4 11.3 0.00 0.00 0.00 90 1004.9
20260506013603 4 74 6.4 11.3 0.00 0.00 0.00 90 1004.8
20260506013503 4 74 6.4 11.3 0.00 0.00 0.00 90 1004.9
20260506013403 4 75 6.4 11.3 0.00 0.00 0.00 90 1004.7
20260506013304 4 75 6.4 11.3 0.00 0.00 0.00 90 1004.9
20260506013203 4 75 6.4 11.3 0.00 0.00 0.00 91 1005.0
20260506013124 4 77 6.4 11.3 0.00 0.00 0.00 91 1004.9
20260506013003 4 78 6.4 11.3 0.00 0.00 0.00 91 1005.0
20260506012903 3 79 4.8 11.3 0.00 0.00 0.00 91 1004.9
20260506012803 3 80 4.8 11.3 0.00 0.00 0.00 91 1004.8
20260506012724 3 80 6.4 11.3 0.00 0.00 0.00 91 1004.9
20260506012603 3 81 6.4 11.3 0.00 0.00 0.00 91 1005.0
20260506012503 3 80 6.4 11.3 0.00 0.00 0.00 91 1004.9
20260506012403 3 78 6.4 11.3 0.00 0.00 0.00 91 1005.1
20260506012307 3 78 6.4 12.9 0.00 0.00 0.00 91 1004.8
20260506012203 3 77 8.0 12.9 0.00 0.00 0.00 91 1004.9
20260506012103 3 76 8.0 12.9 0.00 0.00 0.00 91 1005.2
20260506012003 3 76 8.0 12.9 0.00 0.00 0.00 91 1004.9
20260506011903 4 75 8.0 12.9 0.00 0.00 0.00 90 1004.9
20260506011803 4 74 8.0 12.9 0.00 0.00 0.00 90 1005.1
20260506011703 4 73 8.0 12.9 0.00 0.00 0.00 90 1005.1
20260506011624 4 73 8.0 12.9 0.00 0.00 0.00 90 1004.8
20260506011504 4 73 6.4 12.9 0.00 0.00 0.00 90 1004.8
20260506011403 4 73 6.4 12.9 0.00 0.00 0.00 89 1005.0
20260506011303 4 72 6.4 12.9 0.00 0.00 0.00 89 1005.0
20260506011203 4 71 4.8 11.3 0.00 0.00 0.00 89 1005.1
20260506011125 4 71 4.8 11.3 0.00 0.00 0.00 89 1005.3
20260506011024 4 71 4.8 11.3 0.00 0.00 0.00 89 1005.1
20260506010903 4 70 4.8 11.3 0.00 0.00 0.00 89 1005.3
20260506010824 4 72 4.8 11.3 0.00 0.00 0.00 88 1005.1
20260506010703 4 72 4.8 6.4 0.00 0.00 0.00 89 1004.8
20260506010603 4 76 4.8 6.4 0.00 0.00 0.00 88 1004.9
20260506010503 4 77 4.8 6.4 0.00 0.00 0.00 88 1005.0
20260506010425 4 78 4.8 6.4 0.00 0.00 0.00 88 1004.9
20260506010303 4 80 4.8 6.4 0.00 0.00 0.00 88 1005.2
20260506010203 4 82 4.8 6.4 0.00 0.00 0.00 88 1004.8
20260506010103 4 85 4.8 6.4 0.00 0.00 0.00 88 1005.0
20260506010024 4 87 4.8 6.4 0.00 0.00 0.00 88 1005.1
20260506005903 4 91 4.8 6.4 0.00 0.00 0.00 88 1005.0
20260506005803 4 93 4.8 6.4 0.00 0.00 0.00 88 1005.1
20260506005703 4 95 4.8 6.4 0.00 0.00 0.00 88 1005.0
20260506005603 4 96 4.8 9.7 0.00 0.00 0.00 88 1005.1
20260506005503 4 97 4.8 9.7 0.00 0.00 0.00 88 1005.0
20260506005403 4 98 4.8 9.7 0.00 0.00 0.00 88 1005.1
20260506005324 4 98 4.8 9.7 0.00 0.00 0.00 88 1005.0
20260506005203 4 98 4.8 9.7 0.00 0.00 0.00 88 1004.8
20260506005103 4 97 4.8 9.7 0.00 0.00 0.00 88 1004.9
20260506005003 4 94 4.8 9.7 0.00 0.00 0.00 88 1004.8
20260506004903 4 91 4.8 9.7 0.00 0.00 0.00 88 1005.0
20260506004824 4 89 4.8 9.7 0.00 0.00 0.00 88 1005.0
20260506004704 4 88 4.8 9.7 0.00 0.00 0.00 88 1005.2
20260506004603 4 87 4.8 9.7 0.00 0.00 0.00 88 1004.9
20260506004504 4 86 4.8 9.7 0.00 0.00 0.00 88 1005.1
20260506004403 4 86 4.8 9.7 0.00 0.00 0.00 88 1005.1
20260506004303 4 89 4.8 9.7 0.00 0.00 0.00 88 1004.8
20260506004203 4 88 4.8 9.7 0.00 0.00 0.00 88 1005.1
20260506004104 4 89 4.8 9.7 0.00 0.00 0.00 87 1005.1
20260506004003 4 90 4.8 12.9 0.00 0.00 0.00 87 1005.0
20260506003903 4 92 4.8 12.9 0.00 0.00 0.00 87 1004.9
20260506003824 4 93 4.8 12.9 0.00 0.00 0.00 87 1005.1
20260506003703 4 94 4.8 12.9 0.00 0.00 0.00 87 1005.0
20260506003603 4 95 6.4 12.9 0.00 0.00 0.00 87 1005.0
20260506003503 4 94 6.4 12.9 0.00 0.00 0.00 87 1004.9
20260506003424 4 92 6.4 12.9 0.00 0.00 0.00 87 1005.0
20260506003303 4 91 6.4 14.5 0.00 0.00 0.00 87 1005.1
20260506003203 4 92 8.0 14.5 0.00 0.00 0.00 87 1004.9
20260506003103 5 90 8.0 14.5 0.00 0.00 0.00 87 1005.0
20260506003024 5 90 8.0 14.5 0.00 0.00 0.00 86 1005.1
20260506002903 5 89 8.0 16.1 0.00 0.00 0.00 87 1004.8
20260506002803 5 88 9.7 17.7 0.00 0.00 0.00 87 1005.0
20260506002704 5 88 9.7 17.7 0.00 0.00 0.00 86 1005.0
20260506002603 5 88 9.7 20.9 0.00 0.00 0.00 86 1005.0
20260506002503 5 88 9.7 20.9 0.00 0.00 0.00 86 1005.0
20260506002404 5 87 11.3 20.9 0.00 0.00 0.00 87 1005.2
20260506002324 5 86 11.3 20.9 0.00 0.00 0.00 87 1005.0
20260506002204 5 85 9.7 20.9 0.00 0.00 0.00 87 1005.0
20260506002103 5 86 11.3 20.9 0.00 0.00 0.00 87 1005.0
20260506002003 5 86 11.3 20.9 0.00 0.00 0.00 87 1004.9
20260506001924 5 87 11.3 20.9 0.00 0.00 0.00 87 1005.1
20260506001803 5 86 11.3 20.9 0.00 0.00 0.00 87 1004.8
20260506001704 5 85 11.3 20.9 0.00 0.00 0.00 87 1004.9
20260506001603 5 87 11.3 20.9 0.00 0.00 0.00 87 1004.9
20260506001524 5 87 11.3 17.7 0.00 0.00 0.00 87 1005.1
20260506001403 5 88 11.3 17.7 0.00 0.00 0.00 87 1004.9
20260506001303 5 89 11.3 17.7 0.00 0.00 0.00 87 1004.9
20260506001203 5 88 11.3 17.7 0.00 0.00 0.00 87 1004.8
20260506001103 5 89 11.3 17.7 0.00 0.00 0.00 87 1004.9
20260506001003 5 89 11.3 17.7 0.00 0.00 0.00 87 1004.7
20260506000903 5 88 11.3 17.7 0.00 0.00 0.00 87 1004.7
20260506000803 5 88 11.3 17.7 0.00 0.00 0.00 87 1004.9
20260506000703 5 88 11.3 17.7 0.00 0.00 0.00 87 1004.9
20260506000624 5 88 11.3 17.7 0.00 0.00 0.00 87 1004.8
20260506000503 5 87 11.3 17.7 0.00 0.00 0.00 87 1004.9
20260506000403 5 89 9.7 17.7 0.00 0.00 0.00 87 1004.8
20260506000303 5 89 11.3 17.7 0.00 0.00 0.00 87 1005.1
20260506000205 5 89 11.3 17.7 0.00 0.00 0.00 87 1004.9
20260506000004 5 88 11.3 17.7 0.00 0.00 0.00 87 1004.9
20260505235903 5 88 11.3 17.7 0.00 0.00 0.00 87 1005.0
20260505235804 5 89 11.3 17.7 0.00 0.00 0.00 87 1005.1
20260505235724 5 89 11.3 17.7 0.00 0.00 0.00 87 1004.8
20260505235624 5 87 11.3 17.7 0.00 0.00 0.00 87 1005.0
20260505235503 5 87 12.9 17.7 0.00 0.00 0.00 87 1004.9
20260505235403 5 84 12.9 17.7 0.00 0.00 0.00 87 1005.0
20260505235305 5 82 12.9 20.9 0.00 0.00 0.00 87 1004.9
20260505235203 5 81 12.9 22.5 0.00 0.00 0.00 88 1004.9
20260505235103 5 82 12.9 22.5 0.00 0.00 0.00 88 1005.0
20260505235003 5 83 12.9 22.5 0.00 0.00 0.00 88 1005.0
20260505234903 5 81 12.9 22.5 0.00 0.00 0.00 88 1005.1
20260505234803 5 80 12.9 22.5 0.00 0.00 0.00 88 1004.9
20260505234724 5 80 12.9 22.5 0.00 0.00 0.00 88 1005.0
20260505234603 5 80 14.5 22.5 0.00 0.00 0.00 87 1004.9
20260505234503 5 80 12.9 22.5 0.00 0.00 0.00 87 1004.9
20260505234403 5 81 12.9 22.5 0.00 0.00 0.00 87 1004.9
20260505234303 5 83 12.9 22.5 0.00 0.00 0.00 87 1005.1
20260505234224 5 83 12.9 22.5 0.00 0.00 0.00 87 1004.9
20260505234103 5 82 12.9 22.5 0.00 0.00 0.00 87 1004.9
20260505234003 5 81 12.9 22.5 0.00 0.00 0.00 87 1005.1
20260505233903 5 82 12.9 22.5 0.00 0.00 0.00 87 1004.9
20260505233803 5 82 12.9 22.5 0.00 0.00 0.00 87 1005.0
20260505233703 5 82 12.9 22.5 0.00 0.00 0.00 88 1005.0
20260505233603 5 82 12.9 22.5 0.00 0.00 0.00 88 1004.6
20260505233524 5 81 12.9 22.5 0.00 0.00 0.00 87 1005.0
20260505233403 5 80 12.9 22.5 0.00 0.00 0.00 87 1005.0
20260505233303 5 79 12.9 22.5 0.00 0.00 0.00 87 1004.9
20260505233203 5 79 12.9 22.5 0.00 0.00 0.00 87 1005.0
20260505233103 5 80 12.9 22.5 0.00 0.00 0.00 87 1004.9
20260505233004 5 81 12.9 22.5 0.00 0.00 0.00 87 1005.1
20260505232903 5 80 12.9 22.5 0.00 0.00 0.00 87 1004.8
20260505232803 5 81 12.9 22.5 0.00 0.00 0.00 87 1005.1
20260505232724 5 82 12.9 20.9 0.00 0.00 0.00 88 1004.9
20260505232603 5 82 12.9 20.9 0.00 0.00 0.00 87 1004.9
20260505232524 5 84 12.9 20.9 0.00 0.00 0.00 87 1005.0
20260505232403 5 85 12.9 20.9 0.00 0.00 0.00 87 1004.9
20260505232305 5 86 12.9 20.9 0.00 0.00 0.00 87 1005.2
20260505232203 5 85 12.9 20.9 0.00 0.00 0.00 87 1005.0
20260505232103 5 86 11.3 20.9 0.00 0.00 0.00 87 1005.0
20260505232003 5 87 11.3 20.9 0.00 0.00 0.00 88 1005.0
20260505231924 5 87 11.3 20.9 0.00 0.00 0.00 88 1005.1
20260505231803 5 87 12.9 20.9 0.00 0.00 0.00 88 1004.9
20260505231703 5 88 12.9 20.9 0.00 0.00 0.00 88 1005.2
20260505231603 5 85 12.9 20.9 0.00 0.00 0.00 88 1005.2
20260505231503 5 84 12.9 20.9 0.00 0.00 0.00 88 1005.1
20260505231403 5 84 12.9 20.9 0.00 0.00 0.00 88 1005.2
20260505231303 5 82 12.9 20.9 0.00 0.00 0.00 88 1005.0
20260505231203 5 82 12.9 20.9 0.00 0.00 0.00 88 1005.3
20260505231103 5 81 14.5 20.9 0.00 0.00 0.00 88 1005.1
20260505231003 5 80 14.5 20.9 0.00 0.00 0.00 88 1005.0
20260505230903 5 81 14.5 22.5 0.00 0.00 0.00 88 1005.0
20260505230803 5 80 14.5 22.5 0.00 0.00 0.00 88 1005.2
20260505230703 5 78 14.5 22.5 0.00 0.00 0.00 88 1005.0
20260505230603 5 80 14.5 22.5 0.00 0.00 0.00 88 1005.0
20260505230503 5 80 14.5 22.5 0.00 0.00 0.00 88 1005.1
20260505230403 5 81 14.5 22.5 0.00 0.00 0.00 88 1005.2
20260505230303 5 81 14.5 22.5 0.00 0.00 0.00 88 1005.1
20260505230204 5 81 14.5 22.5 0.00 0.00 0.00 88 1004.9
20260505230003 5 81 14.5 22.5 0.00 0.00 0.00 88 1004.9
20260505225903 5 80 14.5 22.5 0.00 0.00 0.00 88 1005.1
20260505225803 5 81 12.9 22.5 0.00 0.00 0.00 88 1005.0
20260505225703 5 81 12.9 20.9 0.00 0.00 0.00 89 1005.0
20260505225624 5 80 12.9 20.9 0.00 0.00 0.00 89 1004.9
20260505225504 5 80 12.9 20.9 0.00 0.00 0.00 89 1005.1
20260505225403 5 80 12.9 20.9 0.00 0.00 0.00 89 1005.3
20260505225305 5 79 12.9 20.9 0.00 0.00 0.00 89 1005.1
20260505225203 5 78 12.9 20.9 0.00 0.00 0.00 89 1005.3
20260505225103 5 77 12.9 20.9 0.00 0.00 0.00 89 1005.1
20260505225003 5 76 12.9 22.5 0.00 0.00 0.00 89 1005.3
20260505224903 5 76 12.9 22.5 0.00 0.00 0.00 89 1005.3
20260505224803 5 76 12.9 22.5 0.00 0.00 0.00 89 1005.0
20260505224703 5 77 12.9 22.5 0.00 0.00 0.00 89 1005.2
20260505224603 5 77 12.9 22.5 0.00 0.00 0.00 89 1005.3
20260505224503 5 76 12.9 22.5 0.00 0.00 0.00 88 1005.0
20260505224403 5 75 12.9 22.5 0.00 0.00 0.00 88 1005.0
20260505224303 5 76 12.9 22.5 0.00 0.00 0.00 88 1005.0
20260505224203 5 77 12.9 22.5 0.00 0.00 0.00 88 1005.0
20260505224124 5 78 12.9 22.5 0.00 0.00 0.00 88 1005.2
20260505224003 5 78 12.9 22.5 0.00 0.00 0.00 88 1005.0
20260505223924 5 78 12.9 22.5 0.00 0.00 0.00 88 1005.1
20260505223803 5 77 12.9 20.9 0.00 0.00 0.00 88 1005.2
20260505223703 5 77 12.9 20.9 0.00 0.00 0.00 88 1005.2
20260505223603 5 77 12.9 20.9 0.00 0.00 0.00 88 1005.0
20260505223524 5 77 12.9 20.9 0.00 0.00 0.00 88 1005.0
20260505223424 5 77 12.9 20.9 0.00 0.00 0.00 88 1005.3
20260505223303 5 77 12.9 20.9 0.00 0.00 0.00 88 1004.9
20260505223203 5 76 12.9 20.9 0.00 0.00 0.00 88 1005.2
20260505223103 5 77 12.9 20.9 0.00 0.00 0.00 88 1005.3
20260505223024 5 76 12.9 20.9 0.00 0.00 0.00 88 1004.9
20260505222903 5 75 11.3 17.7 0.00 0.00 0.00 88 1005.1
20260505222803 5 76 11.3 17.7 0.00 0.00 0.00 88 1005.0
20260505222703 5 76 11.3 16.1 0.00 0.00 0.00 88 1005.0
20260505222603 5 78 11.3 16.1 0.00 0.00 0.00 88 1005.2
20260505222503 5 78 11.3 17.7 0.00 0.00 0.00 88 1005.0
20260505222403 6 77 11.3 17.7 0.00 0.00 0.00 88 1005.2
20260505222305 6 77 11.3 17.7 0.00 0.00 0.00 88 1005.2
20260505222224 6 77 11.3 17.7 0.00 0.00 0.00 88 1005.0
20260505222124 6 77 11.3 17.7 0.00 0.00 0.00 88 1005.0
20260505222003 6 79 11.3 17.7 0.00 0.00 0.00 88 1005.2
20260505221903 6 79 11.3 17.7 0.00 0.00 0.00 88 1005.2
20260505221803 6 79 11.3 17.7 0.00 0.00 0.00 88 1005.0
20260505221703 6 78 11.3 17.7 0.00 0.00 0.00 89 1005.0
20260505221603 6 75 11.3 17.7 0.00 0.00 0.00 88 1005.1
20260505221503 6 73 11.3 17.7 0.00 0.00 0.00 88 1005.1
20260505221403 6 75 11.3 17.7 0.00 0.00 0.00 89 1004.9
20260505221303 6 75 11.3 24.1 0.00 0.00 0.00 89 1005.2
20260505221203 6 74 11.3 24.1 0.00 0.00 0.00 89 1004.9
20260505221103 6 75 11.3 24.1 0.00 0.00 0.00 88 1005.0
20260505221024 6 75 11.3 24.1 0.00 0.00 0.00 88 1004.9
20260505220903 6 75 11.3 24.1 0.00 0.00 0.00 88 1005.0
20260505220803 6 75 12.9 24.1 0.00 0.00 0.00 88 1005.2
20260505220703 6 76 12.9 24.1 0.00 0.00 0.00 88 1005.1
20260505220603 6 78 12.9 24.1 0.00 0.00 0.00 88 1005.2
20260505220503 6 78 12.9 24.1 0.00 0.00 0.00 87 1005.1
20260505220403 6 78 12.9 24.1 0.00 0.00 0.00 87 1005.0
20260505220303 6 78 12.9 24.1 0.00 0.00 0.00 87 1005.1
20260505220203 6 80 12.9 24.1 0.00 0.00 0.00 87 1005.0
20260505220124 6 81 12.9 22.5 0.00 0.00 0.00 87 1004.9
20260505220003 6 82 12.9 22.5 0.00 0.00 0.00 87 1005.2
20260505215903 6 83 12.9 22.5 0.00 0.00 0.00 87 1005.0
20260505215803 6 83 12.9 22.5 0.00 0.00 0.00 87 1005.0
20260505215703 6 82 12.9 22.5 0.00 0.00 0.00 87 1005.0
20260505215603 6 82 12.9 20.9 0.00 0.00 0.00 87 1004.8
20260505215503 6 81 12.9 20.9 0.00 0.00 0.00 87 1005.0
20260505215403 6 81 12.9 20.9 0.00 0.00 0.00 87 1004.9
20260505215324 6 81 12.9 20.9 0.00 0.00 0.00 87 1004.8
20260505215203 6 80 12.9 20.9 0.00 0.00 0.00 87 1004.9
20260505215103 6 81 12.9 20.9 0.00 0.00 0.00 87 1005.0
20260505215003 6 81 12.9 20.9 0.00 0.00 0.00 87 1004.9
20260505214903 6 82 12.9 20.9 0.00 0.00 0.00 87 1004.8
20260505214803 6 82 12.9 20.9 0.00 0.00 0.00 87 1005.0
20260505214703 6 82 12.9 20.9 0.00 0.00 0.00 87 1004.8
20260505214603 6 82 12.9 20.9 0.00 0.00 0.00 87 1004.8
20260505214503 6 84 12.9 20.9 0.00 0.00 0.00 87 1004.9
20260505214403 6 86 12.9 20.9 0.00 0.00 0.00 87 1005.1
20260505214303 6 86 12.9 20.9 0.00 0.00 0.00 87 1004.8
20260505214203 6 85 12.9 20.9 0.00 0.00 0.00 87 1004.9
20260505214103 6 83 12.9 20.9 0.00 0.00 0.00 87 1004.9
20260505214024 6 83 12.9 20.9 0.00 0.00 0.00 87 1004.7
20260505213903 6 81 12.9 20.9 0.00 0.00 0.00 87 1004.9
20260505213803 6 80 12.9 20.9 0.00 0.00 0.00 87 1004.7
20260505213703 6 81 14.5 20.9 0.00 0.00 0.00 87 1004.9
20260505213603 6 82 14.5 22.5 0.00 0.00 0.00 87 1004.8
20260505213524 6 82 14.5 22.5 0.00 0.00 0.00 87 1004.6
20260505213403 6 79 14.5 22.5 0.00 0.00 0.00 87 1004.6
20260505213303 6 78 14.5 22.5 0.00 0.00 0.00 87 1004.7
20260505213203 6 78 14.5 22.5 0.00 0.00 0.00 87 1004.7
20260505213103 6 79 12.9 22.5 0.00 0.00 0.00 87 1004.8
20260505213003 6 79 12.9 22.5 0.00 0.00 0.00 87 1005.0
20260505212903 6 80 12.9 22.5 0.00 0.00 0.00 87 1004.8
20260505212803 6 80 12.9 22.5 0.00 0.00 0.00 87 1004.9
20260505212724 6 79 12.9 22.5 0.00 0.00 0.00 87 1004.7
20260505212603 6 79 12.9 22.5 0.00 0.00 0.00 87 1004.8
20260505212524 6 78 12.9 22.5 0.00 0.00 0.00 87 1004.8
20260505212403 6 79 12.9 20.9 0.00 0.00 0.00 87 1004.7
20260505212305 6 80 12.9 20.9 0.00 0.00 0.00 86 1004.9
20260505212224 6 80 12.9 20.9 0.00 0.00 0.00 86 1004.8
20260505212103 6 80 12.9 20.9 0.00 0.00 0.00 86 1004.7
20260505212024 6 80 12.9 20.9 0.00 0.00 0.00 86 1004.8
20260505211903 6 82 14.5 20.9 0.00 0.00 0.00 86 1004.6
20260505211824 6 82 14.5 20.9 0.00 0.00 0.00 86 1004.8
20260505211704 6 82 12.9 20.9 0.00 0.00 0.00 86 1004.5
20260505211604 6 82 12.9 20.9 0.00 0.00 0.00 86 1004.8
20260505211525 6 81 12.9 20.9 0.00 0.00 0.00 86 1004.9
20260505211405 6 80 12.9 20.9 0.00 0.00 0.00 86 1004.8
20260505211304 6 78 12.9 22.5 0.00 0.00 0.00 86 1004.7
20260505211205 6 78 12.9 22.5 0.00 0.00 0.00 86 1004.8
20260505211105 6 79 12.9 22.5 0.00 0.00 0.00 86 1004.7
20260505211025 6 79 12.9 22.5 0.00 0.00 0.00 86 1004.9
20260505210904 6 76 12.9 22.5 0.00 0.00 0.00 87 1004.8
20260505210805 6 76 12.9 22.5 0.00 0.00 0.00 87 1004.8
20260505210704 6 75 12.9 22.5 0.00 0.00 0.00 86 1004.7
20260505210625 6 75 12.9 22.5 0.00 0.00 0.00 86 1004.9
20260505210504 6 77 12.9 22.5 0.00 0.00 0.00 86 1004.9
20260505210426 6 78 12.9 22.5 0.00 0.00 0.00 86 1004.8
20260505210304 6 77 12.9 22.5 0.00 0.00 0.00 86 1004.8
20260505210205 6 77 12.9 22.5 0.00 0.00 0.00 86 1004.7
20260505210104 6 77 12.9 20.9 0.00 0.00 0.00 86 1004.6
20260505210005 6 77 12.9 20.9 0.00 0.00 0.00 86 1004.7
20260505205905 6 78 12.9 20.9 0.00 0.00 0.00 86 1004.8
20260505205825 6 78 12.9 20.9 0.00 0.00 0.00 86 1004.7
20260505205705 6 78 12.9 20.9 0.00 0.00 0.00 86 1004.6
20260505205604 6 78 12.9 20.9 0.00 0.00 0.00 86 1004.8
20260505205504 6 78 12.9 27.4 0.00 0.00 0.00 85 1004.7
20260505205425 6 79 12.9 27.4 0.00 0.00 0.00 85 1004.5
20260505205305 6 80 14.5 27.4 0.00 0.00 0.00 85 1004.5
20260505205226 6 80 14.5 27.4 0.00 0.00 0.00 85 1004.6
20260505205104 6 79 14.5 27.4 0.00 0.00 0.00 85 1004.7
20260505205005 6 79 14.5 27.4 0.00 0.00 0.00 85 1004.7
20260505204905 7 79 14.5 27.4 0.00 0.00 0.00 85 1004.7
20260505204825 7 78 14.5 27.4 0.00 0.00 0.00 85 1004.7
20260505204705 7 79 14.5 27.4 0.00 0.00 0.00 84 1004.7
20260505204604 7 79 14.5 27.4 0.00 0.00 0.00 84 1004.7
20260505204505 7 78 16.1 27.4 0.00 0.00 0.00 84 1004.6
20260505204425 7 77 16.1 27.4 0.00 0.00 0.00 84 1004.7
20260505204304 7 76 14.5 24.1 0.00 0.00 0.00 84 1004.5
20260505204204 7 76 14.5 22.5 0.00 0.00 0.00 84 1004.8
20260505204104 7 75 14.5 22.5 0.00 0.00 0.00 84 1004.6
20260505204004 7 74 14.5 22.5 0.00 0.00 0.00 84 1004.7
20260505203926 7 75 14.5 22.5 0.00 0.00 0.00 85 1004.7
20260505203825 7 75 14.5 22.5 0.00 0.00 0.00 85 1004.6
20260505203704 7 76 14.5 20.9 0.00 0.00 0.00 85 1004.7
20260505203604 7 76 12.9 20.9 0.00 0.00 0.00 85 1004.7
20260505203505 7 75 12.9 20.9 0.00 0.00 0.00 85 1004.7
20260505203404 7 76 12.9 20.9 0.00 0.00 0.00 85 1004.7
20260505203326 7 76 12.9 20.9 0.00 0.00 0.00 85 1004.5
20260505203204 7 78 12.9 20.9 0.00 0.00 0.00 86 1004.7
20260505203104 7 79 12.9 20.9 0.00 0.00 0.00 86 1004.6
20260505203004 7 79 12.9 20.9 0.00 0.00 0.00 86 1004.6
20260505202904 7 79 12.9 20.9 0.00 0.00 0.00 86 1004.8
20260505202804 7 77 12.9 20.9 0.00 0.00 0.00 86 1004.7
20260505202705 7 78 12.9 20.9 0.00 0.00 0.00 86 1004.6
20260505202625 7 79 12.9 20.9 0.00 0.00 0.00 86 1004.5
20260505202504 7 79 12.9 20.9 0.00 0.00 0.00 86 1004.7
20260505202405 7 78 12.9 20.9 0.00 0.00 0.00 86 1004.7
20260505202306 7 78 12.9 20.9 0.00 0.00 0.00 85 1004.6
20260505202204 7 77 12.9 17.7 0.00 0.00 0.00 86 1004.8
20260505202104 7 77 12.9 17.7 0.00 0.00 0.00 85 1004.6
20260505202025 7 77 12.9 17.7 0.00 0.00 0.00 85 1004.6
20260505201904 7 77 12.9 17.7 0.00 0.00 0.00 85 1004.6
20260505201804 7 78 12.9 17.7 0.00 0.00 0.00 85 1004.7
20260505201704 7 78 12.9 17.7 0.00 0.00 0.00 85 1004.8
20260505201605 7 78 12.9 17.7 0.00 0.00 0.00 85 1004.7
20260505201504 7 79 12.9 17.7 0.00 0.00 0.00 85 1004.6
20260505201404 7 78 12.9 17.7 0.00 0.00 0.00 85 1004.8
20260505201304 7 79 12.9 17.7 0.00 0.00 0.00 85 1004.7
20260505201204 7 79 12.9 17.7 0.00 0.00 0.00 85 1004.8
20260505201104 7 79 12.9 17.7 0.00 0.00 0.00 84 1004.6
20260505201004 7 79 12.9 17.7 0.00 0.00 0.00 84 1004.7
20260505200905 7 79 12.9 17.7 0.00 0.00 0.00 84 1004.7
20260505200804 7 79 12.9 22.5 0.00 0.00 0.00 84 1004.5
20260505200704 7 79 12.9 22.5 0.00 0.00 0.00 84 1004.7
20260505200604 7 80 12.9 22.5 0.00 0.00 0.00 84 1004.6
20260505200504 7 80 12.9 22.5 0.00 0.00 0.00 83 1004.7
20260505200404 7 80 12.9 22.5 0.00 0.00 0.00 83 1004.7
20260505200304 7 80 12.9 22.5 0.00 0.00 0.00 83 1004.7
20260505200205 7 79 12.9 22.5 0.00 0.00 0.00 83 1004.6
20260505200104 7 77 12.9 22.5 0.00 0.00 0.00 83 1004.6
20260505200005 7 77 12.9 25.7 0.00 0.00 0.00 83 1004.6
20260505195904 7 78 12.9 25.7 0.00 0.00 0.00 83 1004.7
20260505195805 7 78 14.5 25.7 0.00 0.00 0.00 82 1004.4
20260505195704 7 79 14.5 25.7 0.00 0.00 0.00 82 1004.8
20260505195605 7 78 14.5 25.7 0.00 0.00 0.00 82 1004.5
20260505195504 7 78 14.5 25.7 0.00 0.00 0.00 82 1004.5
20260505195404 7 79 14.5 25.7 0.00 0.00 0.00 82 1004.6
20260505195305 7 80 14.5 25.7 0.00 0.00 0.00 82 1004.8
20260505195204 7 80 14.5 25.7 0.00 0.00 0.00 82 1004.4
20260505195104 7 82 12.9 25.7 0.00 0.00 0.00 82 1004.5
20260505195005 7 84 14.5 25.7 0.00 0.00 0.00 82 1004.5
20260505194904 7 84 12.9 25.7 0.00 0.00 0.00 82 1004.5
20260505194805 7 83 12.9 24.1 0.00 0.00 0.00 83 1004.7
20260505194726 7 84 14.5 24.1 0.00 0.00 0.00 82 1004.5
20260505194604 7 86 14.5 24.1 0.00 0.00 0.00 82 1004.5
20260505194504 7 87 14.5 24.1 0.00 0.00 0.00 83 1004.5
20260505194404 7 86 14.5 24.1 0.00 0.00 0.00 83 1004.5
20260505194304 7 86 14.5 24.1 0.00 0.00 0.00 83 1004.5
20260505194204 7 85 14.5 24.1 0.00 0.00 0.00 82 1004.5
20260505194104 7 86 14.5 24.1 0.00 0.00 0.00 82 1004.3
20260505194004 7 87 14.5 22.5 0.00 0.00 0.00 83 1004.4
20260505193925 7 86 14.5 22.5 0.00 0.00 0.00 83 1004.3
20260505193804 7 86 14.5 24.1 0.00 0.00 0.00 83 1004.5
20260505193725 7 87 14.5 24.1 0.00 0.00 0.00 83 1004.5
20260505193605 7 85 14.5 24.1 0.00 0.00 0.00 83 1004.4
20260505193504 7 85 14.5 24.1 0.00 0.00 0.00 82 1004.3
20260505193404 7 86 14.5 24.1 0.00 0.00 0.00 83 1004.5
20260505193304 7 85 14.5 24.1 0.00 0.00 0.00 82 1004.6
20260505193225 7 84 14.5 24.1 0.00 0.00 0.00 82 1004.2
20260505193104 7 86 14.5 24.1 0.00 0.00 0.00 82 1004.4
20260505193004 7 86 14.5 24.1 0.00 0.00 0.00 82 1004.4
20260505192904 7 85 14.5 24.1 0.00 0.00 0.00 82 1004.4
20260505192825 7 85 14.5 24.1 0.00 0.00 0.00 83 1004.3
20260505192704 7 85 14.5 24.1 0.00 0.00 0.00 83 1004.2
20260505192604 7 86 14.5 24.1 0.00 0.00 0.00 82 1004.4
20260505192504 7 86 14.5 24.1 0.00 0.00 0.00 82 1004.2
20260505192404 7 86 14.5 24.1 0.00 0.00 0.00 82 1004.3
20260505192305 7 88 14.5 24.1 0.00 0.00 0.00 83 1004.2
20260505192204 7 89 14.5 22.5 0.00 0.00 0.00 83 1004.2
20260505192125 7 88 14.5 22.5 0.00 0.00 0.00 83 1004.3
20260505192005 7 88 14.5 22.5 0.00 0.00 0.00 83 1004.3
20260505191925 7 90 14.5 22.5 0.00 0.00 0.00 83 1004.1
20260505191804 7 89 12.9 22.5 0.00 0.00 0.00 82 1004.3
20260505191704 7 89 12.9 25.7 0.00 0.00 0.00 83 1004.1
20260505191604 7 87 12.9 25.7 0.00 0.00 0.00 83 1004.3
20260505191505 7 86 12.9 25.7 0.00 0.00 0.00 83 1004.2
20260505191404 7 85 12.9 25.7 0.00 0.00 0.00 83 1004.2
20260505191304 7 85 14.5 25.7 0.00 0.00 0.00 83 1004.4
20260505191204 7 84 14.5 25.7 0.00 0.00 0.00 83 1004.2
20260505191104 7 84 14.5 25.7 0.00 0.00 0.00 83 1004.2
20260505191004 7 84 14.5 25.7 0.00 0.00 0.00 83 1004.3
20260505190905 7 85 14.5 25.7 0.00 0.00 0.00 83 1004.2
20260505190804 7 84 14.5 25.7 0.00 0.00 0.00 82 1004.2
20260505190705 7 84 14.5 25.7 0.00 0.00 0.00 82 1004.2
20260505190604 7 84 14.5 24.1 0.00 0.00 0.00 82 1004.1
20260505190525 7 83 14.5 24.1 0.00 0.00 0.00 82 1004.1
20260505190405 7 84 14.5 24.1 0.00 0.00 0.00 82 1004.3
20260505190304 7 84 14.5 24.1 0.00 0.00 0.00 82 1004.4
20260505190204 7 83 12.9 22.5 0.00 0.00 0.00 82 1004.1
20260505190125 7 83 12.9 22.5 0.00 0.00 0.00 82 1004.2
20260505190025 7 81 12.9 22.5 0.00 0.00 0.00 82 1004.0
20260505185904 7 79 12.9 22.5 0.00 0.00 0.00 82 1004.3
20260505185804 7 79 12.9 22.5 0.00 0.00 0.00 82 1004.3
20260505185704 7 80 12.9 22.5 0.00 0.00 0.00 81 1004.2
20260505185604 7 81 12.9 22.5 0.00 0.00 0.00 82 1004.0
20260505185504 7 82 12.9 22.5 0.00 0.00 0.00 83 1004.1
20260505185425 7 82 14.5 22.5 0.00 0.00 0.00 82 1004.1
20260505185305 7 80 14.5 22.5 0.00 0.00 0.00 82 1004.1
20260505185204 8 82 14.5 22.5 0.00 0.00 0.00 81 1004.2
20260505185105 8 83 14.5 22.5 0.00 0.00 0.00 82 1004.3
20260505185004 8 84 14.5 22.5 0.00 0.00 0.00 81 1004.0
20260505184904 8 83 14.5 24.1 0.00 0.00 0.00 81 1004.2
20260505184804 8 83 14.5 24.1 0.00 0.00 0.00 81 1004.2
20260505184725 8 82 14.5 25.7 0.00 0.00 0.00 81 1004.2
20260505184625 8 84 16.1 25.7 0.00 0.00 0.00 81 1004.1
20260505184504 8 84 16.1 25.7 0.00 0.00 0.00 81 1003.9
20260505184404 8 85 16.1 25.7 0.00 0.00 0.00 81 1004.2
20260505184325 8 86 16.1 25.7 0.00 0.00 0.00 81 1004.2
20260505184204 8 85 16.1 25.7 0.00 0.00 0.00 82 1004.1
20260505184125 8 84 16.1 25.7 0.00 0.00 0.00 81 1003.9
20260505184004 8 82 16.1 25.7 0.00 0.00 0.00 81 1004.0
20260505183904 8 82 17.7 25.7 0.00 0.00 0.00 81 1004.0
20260505183804 8 82 17.7 29.0 0.00 0.00 0.00 81 1004.0
20260505183704 8 84 17.7 30.6 0.00 0.00 0.00 81 1004.1
20260505183604 8 84 17.7 30.6 0.00 0.00 0.00 81 1003.9
20260505183504 8 83 17.7 30.6 0.00 0.00 0.00 81 1004.1
20260505183404 8 83 17.7 30.6 0.00 0.00 0.00 80 1004.1
20260505183304 8 84 17.7 30.6 0.00 0.00 0.00 80 1004.1
20260505183204 8 83 17.7 30.6 0.00 0.00 0.00 81 1004.1
20260505183104 8 85 16.1 30.6 0.00 0.00 0.00 81 1004.1
20260505183004 8 85 17.7 30.6 0.00 0.00 0.00 80 1004.1
20260505182904 8 86 17.7 30.6 0.00 0.00 0.00 80 1004.3
20260505182804 8 87 17.7 30.6 0.00 0.00 0.00 80 1004.1
20260505182704 8 86 16.1 30.6 0.00 0.00 0.00 80 1004.2
20260505182604 8 84 16.1 27.4 0.00 0.00 0.00 81 1004.2
20260505182504 8 85 16.1 27.4 0.00 0.00 0.00 82 1004.1
20260505182404 8 86 16.1 27.4 0.00 0.00 0.00 82 1004.0
20260505182325 8 85 16.1 27.4 0.00 0.00 0.00 82 1004.1
20260505182204 8 85 16.1 27.4 0.00 0.00 0.00 81 1004.1
20260505182104 8 86 16.1 27.4 0.00 0.00 0.00 81 1004.1
20260505182004 8 87 16.1 25.7 0.00 0.00 0.00 81 1004.0
20260505181904 8 86 16.1 24.1 0.00 0.00 0.00 81 1004.0
20260505181804 8 85 16.1 24.1 0.00 0.00 0.00 81 1004.2
20260505181704 8 85 16.1 24.1 0.00 0.00 0.00 81 1003.9
20260505181625 8 85 16.1 24.1 0.00 0.00 0.00 81 1004.2
20260505181504 8 84 16.1 24.1 0.00 0.00 0.00 81 1003.9
20260505181404 8 83 16.1 24.1 0.00 0.00 0.00 81 1004.1
20260505181304 8 84 16.1 24.1 0.00 0.00 0.00 81 1004.0
20260505181204 8 85 16.1 25.7 0.00 0.00 0.00 80 1004.0
20260505181104 8 84 16.1 30.6 0.00 0.00 0.00 80 1004.1
20260505181004 8 83 16.1 30.6 0.00 0.00 0.00 81 1004.2
20260505180904 8 84 17.7 30.6 0.00 0.00 0.00 80 1004.2
20260505180804 8 85 16.1 30.6 0.00 0.00 0.00 81 1004.1
20260505180704 8 85 16.1 30.6 0.00 0.00 0.00 81 1004.1
20260505180604 8 82 16.1 30.6 0.00 0.00 0.00 81 1004.2
20260505180504 8 82 16.1 30.6 0.00 0.00 0.00 82 1004.0
20260505180404 8 82 17.7 30.6 0.00 0.00 0.00 82 1004.2
20260505180304 8 81 17.7 30.6 0.00 0.00 0.00 81 1004.4
20260505180204 8 80 19.3 30.6 0.00 0.00 0.00 81 1004.1
20260505180104 8 79 19.3 33.8 0.00 0.00 0.00 81 1004.2
20260505180004 8 80 19.3 33.8 0.00 0.00 0.00 81 1004.1
20260505175904 8 80 19.3 33.8 0.00 0.00 0.00 81 1004.2
20260505175804 8 78 19.3 33.8 0.00 0.00 0.00 81 1004.1
20260505175704 8 79 19.3 33.8 0.00 0.00 0.00 80 1004.0
20260505175604 8 80 17.7 33.8 0.00 0.00 0.00 81 1004.3
20260505175504 8 80 17.7 33.8 0.00 0.00 0.00 81 1004.1
20260505175404 8 81 17.7 33.8 0.00 0.00 0.00 81 1004.1
20260505175305 8 81 17.7 33.8 0.00 0.00 0.00 81 1004.2
20260505175225 8 80 17.7 33.8 0.00 0.00 0.00 81 1004.0
20260505175104 8 81 17.7 33.8 0.00 0.00 0.00 80 1004.0
20260505175004 8 81 16.1 29.0 0.00 0.00 0.00 82 1004.1
20260505174904 8 79 16.1 29.0 0.00 0.00 0.00 82 1004.0
20260505174804 8 80 16.1 29.0 0.00 0.00 0.00 81 1004.1
20260505174725 8 80 16.1 27.4 0.00 0.00 0.00 82 1004.0
20260505174604 8 79 16.1 27.4 0.00 0.00 0.00 81 1004.2
20260505174525 8 79 17.7 27.4 0.00 0.00 0.00 81 1004.0
20260505174404 8 81 17.7 27.4 0.00 0.00 0.00 81 1004.0
20260505174325 8 81 17.7 29.0 0.00 0.00 0.00 81 1004.1
20260505174204 8 80 17.7 29.0 0.00 0.00 0.00 82 1004.1
20260505174126 8 79 17.7 29.0 0.00 0.00 0.00 82 1004.0
20260505174004 8 79 17.7 33.8 0.00 0.00 0.00 82 1003.8
20260505173925 8 80 17.7 33.8 0.00 0.00 0.00 82 1004.1
20260505173804 8 80 19.3 33.8 0.00 0.00 0.00 82 1004.1
20260505173704 8 78 19.3 33.8 0.00 0.00 0.00 82 1004.2
20260505173604 8 77 19.3 33.8 0.00 0.00 0.00 83 1003.7
20260505173504 8 77 19.3 33.8 0.00 0.00 0.00 82 1004.2
20260505173404 8 75 19.3 33.8 0.00 0.00 0.00 82 1004.0
20260505173304 8 76 19.3 33.8 0.00 0.00 0.00 81 1004.1
20260505173205 8 77 19.3 33.8 0.00 0.00 0.00 82 1003.8
20260505173104 8 79 19.3 33.8 0.00 0.00 0.00 82 1003.8
20260505173004 8 79 17.7 33.8 0.00 0.00 0.00 82 1004.0
20260505172904 8 78 17.7 33.8 0.00 0.00 0.00 82 1004.2
20260505172804 9 77 17.7 27.4 0.00 0.00 0.00 83 1003.9
20260505172704 9 80 17.7 30.6 0.00 0.00 0.00 83 1004.1
20260505172625 9 81 17.7 30.6 0.00 0.00 0.00 84 1003.7
20260505172505 9 81 19.3 33.8 0.00 0.00 0.00 84 1003.8
20260505172404 9 83 19.3 33.8 0.00 0.00 0.00 84 1004.0
20260505172306 9 82 19.3 33.8 0.00 0.00 0.00 84 1004.0
20260505172204 9 80 19.3 33.8 0.00 0.00 0.00 84 1004.0
20260505172104 9 79 19.3 33.8 0.00 0.00 0.00 83 1003.9
20260505172004 9 79 19.3 33.8 0.00 0.00 0.00 83 1004.0
20260505171904 8 80 19.3 33.8 0.00 0.00 0.00 83 1003.9
20260505171804 8 82 19.3 33.8 0.00 0.00 0.00 83 1004.1
20260505171704 8 81 20.9 33.8 0.00 0.00 0.00 82 1004.0
20260505171604 9 83 20.9 33.8 0.00 0.00 0.00 82 1003.8
20260505171504 9 85 19.3 33.8 0.00 0.00 0.00 82 1003.8
20260505171425 9 85 19.3 33.8 0.00 0.00 0.00 82 1003.7
20260505171304 9 85 19.3 30.6 0.00 0.00 0.00 83 1003.9
20260505171204 9 86 19.3 30.6 0.00 0.00 0.00 83 1003.6
20260505171104 9 87 19.3 30.6 0.00 0.00 0.00 83 1003.8
20260505171004 9 85 20.9 35.4 0.00 0.00 0.00 82 1003.8
20260505170904 9 86 20.9 35.4 0.00 0.00 0.00 82 1003.7
20260505170826 9 85 20.9 35.4 0.00 0.00 0.00 82 1003.9
20260505170704 9 84 20.9 35.4 0.00 0.00 0.00 82 1003.8
20260505170604 9 81 20.9 35.4 0.00 0.00 0.00 82 1003.7
20260505170504 9 79 20.9 35.4 0.00 0.00 0.00 82 1004.1
20260505170404 9 78 20.9 35.4 0.00 0.00 0.00 82 1003.8
20260505170325 9 77 22.5 35.4 0.00 0.00 0.00 82 1004.0
20260505170204 9 75 22.5 35.4 0.00 0.00 0.00 83 1003.7
20260505170104 9 76 22.5 35.4 0.00 0.00 0.00 83 1004.0
20260505170004 9 76 22.5 35.4 0.00 0.00 0.00 82 1003.9
20260505165904 9 76 22.5 35.4 0.00 0.00 0.00 82 1003.9
20260505165804 10 76 22.5 35.4 0.00 0.00 0.00 82 1003.8
20260505165704 10 76 20.9 35.4 0.00 0.00 0.00 81 1003.7
20260505165604 10 78 20.9 35.4 0.00 0.00 0.00 82 1003.8
20260505165504 10 80 20.9 35.4 0.00 0.00 0.00 82 1003.9
20260505165404 10 83 20.9 35.4 0.00 0.00 0.00 83 1003.9
20260505165306 10 84 20.9 35.4 0.00 0.00 0.00 84 1003.8
20260505165204 10 86 20.9 35.4 0.00 0.00 0.00 84 1003.8
20260505165104 10 86 20.9 35.4 0.00 0.00 0.00 84 1003.7
20260505165004 10 87 20.9 35.4 0.00 0.00 0.00 83 1003.9
20260505164925 10 87 20.9 33.8 0.00 0.00 0.00 83 1003.8
20260505164804 10 87 20.9 30.6 0.00 0.00 0.00 84 1003.7
20260505164704 9 87 20.9 30.6 0.00 0.00 0.00 84 1003.9
20260505164604 9 88 20.9 30.6 0.00 0.00 0.00 84 1003.9
20260505164504 9 87 20.9 30.6 0.00 0.00 0.00 84 1003.8
20260505164425 9 86 20.9 30.6 0.00 0.00 0.00 84 1003.8
20260505164304 9 85 20.9 30.6 0.00 0.00 0.00 83 1003.7
20260505164204 9 85 20.9 29.0 0.00 0.00 0.00 83 1003.9
20260505164104 9 84 20.9 29.0 0.00 0.00 0.00 84 1003.9
20260505164004 9 83 19.3 29.0 0.00 0.00 0.00 84 1003.8
20260505163904 9 83 19.3 29.0 0.00 0.00 0.00 84 1003.8
20260505163804 9 83 19.3 27.4 0.00 0.00 0.00 84 1003.9
20260505163704 9 84 19.3 27.4 0.00 0.00 0.00 84 1004.0
20260505163604 9 82 19.3 27.4 0.00 0.00 0.00 85 1003.9
20260505163504 9 83 19.3 29.0 0.00 0.00 0.00 85 1003.8
20260505163404 9 84 17.7 29.0 0.00 0.00 0.00 86 1003.8
20260505163304 9 81 19.3 29.0 0.00 0.00 0.00 86 1003.9
20260505163204 9 79 17.7 29.0 0.00 0.00 0.00 87 1004.0
20260505163104 9 80 17.7 29.0 0.00 0.00 0.00 87 1003.9
20260505163004 9 81 17.7 29.0 0.00 0.00 0.00 87 1003.6
20260505162904 9 80 19.3 29.0 0.00 0.00 0.00 87 1003.8
20260505162804 9 81 19.3 29.0 0.00 0.00 0.00 88 1003.5
20260505162704 9 81 19.3 29.0 0.00 0.00 0.00 88 1003.9
20260505162604 9 80 19.3 29.0 0.00 0.00 0.00 88 1003.7
20260505162504 9 80 19.3 29.0 0.00 0.00 0.00 88 1003.8
20260505162404 9 79 19.3 29.0 0.00 0.00 0.00 87 1003.7
20260505162306 9 80 19.3 29.0 0.00 0.00 0.00 87 1003.8
20260505162204 10 81 19.3 29.0 0.00 0.00 0.00 87 1003.9
20260505162104 10 78 20.9 29.0 0.00 0.00 0.00 87 1003.8
20260505162004 10 77 20.9 30.6 0.00 0.00 0.00 86 1003.8
20260505161904 10 76 20.9 30.6 0.00 0.00 0.00 86 1003.6
20260505161804 10 75 20.9 30.6 0.00 0.00 0.00 86 1003.6
20260505161704 10 73 20.9 30.6 0.00 0.00 0.00 86 1003.7
20260505161604 10 71 20.9 30.6 0.00 0.00 0.00 85 1003.6
20260505161525 10 70 20.9 30.6 0.00 0.00 0.00 85 1003.6
20260505161425 10 71 19.3 30.6 0.00 0.00 0.00 85 1003.7
20260505161325 10 71 19.3 30.6 0.00 0.00 0.00 86 1003.7
20260505161204 10 71 20.9 30.6 0.00 0.00 0.00 84 1003.7
20260505161104 10 74 20.9 30.6 0.00 0.00 0.00 85 1003.5
20260505161004 10 75 20.9 30.6 0.00 0.00 0.00 84 1003.6
20260505160904 10 77 20.9 30.6 0.00 0.00 0.00 84 1003.4
20260505160804 10 78 20.9 30.6 0.00 0.00 0.00 85 1003.5
20260505160704 10 79 20.9 30.6 0.00 0.00 0.00 85 1003.6
20260505160604 9 79 20.9 30.6 0.00 0.00 0.00 86 1003.4
20260505160504 9 77 20.9 35.4 0.00 0.00 0.00 85 1003.5
20260505160404 9 76 20.9 35.4 0.00 0.00 0.00 85 1003.5
20260505160304 9 75 20.9 35.4 0.00 0.00 0.00 85 1003.5
20260505160225 9 76 22.5 35.4 0.00 0.00 0.00 85 1003.3
20260505160104 9 74 20.9 35.4 0.00 0.00 0.00 86 1003.6
20260505153304 9 76 20.9 30.6 0.00 0.00 0.00 86 1003.6
20260505153204 10 75 20.9 30.6 0.00 0.00 0.00 86 1003.5
20260505153125 10 74 19.3 30.6 0.00 0.00 0.00 86 1003.5
20260505153004 10 73 19.3 30.6 0.00 0.00 0.00 86 1003.4
20260505152904 10 74 17.7 30.6 0.00 0.00 0.00 86 1003.4
20260505152804 10 75 16.1 29.0 0.00 0.00 0.00 87 1003.3
20260505152704 10 73 16.1 29.0 0.00 0.00 0.00 86 1003.5
20260505152604 10 70 14.5 29.0 0.00 0.00 0.00 85 1003.7
20260505152525 10 70 12.9 29.0 0.00 0.00 0.00 84 1003.5
20260505152404 11 65 11.3 29.0 0.00 0.00 0.00 84 1003.5
20260505152305 11 65 9.7 29.0 0.00 0.00 0.00 83 1003.5
20260505152204 11 56 8.0 24.1 0.00 0.00 0.00 83 1003.4
20260505152125 11 53 8.0 24.1 0.00 0.00 0.00 82 1003.3
20260505152004 11 42 6.4 24.1 0.00 0.00 0.00 80 1003.2
20260505151904 11 35 6.4 14.5 0.00 0.00 0.00 78 1003.3
20260505151825 11 28 6.4 12.9 0.00 0.00 0.00 78 1003.5
20260505151704 11 29 6.4 12.9 0.00 0.00 0.00 77 1003.4
20260505151604 11 29 6.4 12.9 0.00 0.00 0.00 79 1003.3
20260505151504 11 24 6.4 17.7 0.00 0.00 0.00 78 1003.4
20260505151404 11 24 6.4 17.7 0.00 0.00 0.00 78 1003.3
20260505151304 11 26 6.4 17.7 0.00 0.00 0.00 77 1003.4
20260505151225 11 29 6.4 17.7 0.00 0.00 0.00 77 1003.2
20260505151125 11 30 6.4 17.7 0.00 0.00 0.00 76 1003.6
20260505151004 11 33 6.4 17.7 0.00 0.00 0.00 78 1003.4
20260505150904 11 33 6.4 17.7 0.00 0.00 0.00 79 1003.5
20260505150804 11 31 6.4 17.7 0.00 0.00 0.00 79 1003.5
20260505150704 11 30 8.0 17.7 0.00 0.00 0.00 79 1003.3
20260505150604 11 27 8.0 17.7 0.00 0.00 0.00 79 1003.3
20260505150504 11 26 6.4 17.7 0.00 0.00 0.00 78 1003.4
20260505150404 12 25 6.4 16.1 0.00 0.00 0.00 79 1003.5
20260505150325 12 23 6.4 16.1 0.00 0.00 0.00 78 1003.7
20260505150225 12 24 6.4 16.1 0.00 0.00 0.00 79 1003.4
20260505150104 12 23 6.4 16.1 0.00 0.00 0.00 79 1003.5
20260505140604 11 36 3.2 9.7 0.00 0.00 0.00 78 1003.3
20260505140504 11 37 3.2 9.7 0.00 0.00 0.00 77 1003.2
20260505140404 11 37 3.2 9.7 0.00 0.00 0.00 77 1003.5
20260505140304 11 34 3.2 9.7 0.00 0.00 0.00 76 1003.5
20260505140204 11 37 3.2 9.7 0.00 0.00 0.00 75 1003.3
20260505140104 11 38 3.2 9.7 0.00 0.00 0.00 75 1003.5
20260505130304 12 281 3.2 12.9 0.00 0.00 0.00 70 1003.5
20260505130204 12 281 3.2 12.9 0.00 0.00 0.00 69 1003.4
20260505130104 12 300 1.6 12.9 0.00 0.00 0.00 69 1003.2
20260505125004 13 293 1.6 6.4 0.00 0.00 0.00 66 1003.5
20260505124904 13 289 1.6 9.7 0.00 0.00 0.00 67 1003.4
20260505124804 12 282 1.6 9.7 0.00 0.00 0.00 70 1003.6
20260505124704 12 279 1.6 9.7 0.00 0.00 0.00 68 1003.3
20260505124604 12 278 3.2 9.7 0.00 0.00 0.00 67 1003.4
20260505124525 12 284 3.2 9.7 0.00 0.00 0.00 67 1003.5
20260505124404 12 295 3.2 9.7 0.00 0.00 0.00 69 1003.2
20260505124304 12 289 3.2 9.7 0.00 0.00 0.00 68 1003.5
20260505124204 12 292 3.2 9.7 0.00 0.00 0.00 68 1003.3
20260505124125 12 294 3.2 9.7 0.00 0.00 0.00 69 1003.5
20260505124025 12 291 3.2 9.7 0.00 0.00 0.00 70 1003.2
20260505123925 12 278 3.2 9.7 0.00 0.00 0.00 71 1003.5
20260505123804 12 309 3.2 9.7 0.00 0.00 0.00 70 1003.4
20260505123704 12 342 3.2 9.7 0.00 0.00 0.00 71 1003.4
20260505123604 12 3 3.2 9.7 0.00 0.00 0.00 70 1003.6
20260505123525 12 3 3.2 9.7 0.00 0.00 0.00 71 1003.4
20260505123404 11 9 3.2 9.7 0.00 0.00 0.00 71 1003.4
20260505123325 11 7 3.2 9.7 0.00 0.00 0.00 72 1003.3
20260505123204 11 16 3.2 16.1 0.00 0.00 0.00 70 1003.3
20260505123104 11 18 4.8 16.1 0.00 0.00 0.00 71 1003.6
20260505123004 11 16 4.8 16.1 0.00 0.00 0.00 72 1003.5
20260505122904 12 12 4.8 16.1 0.00 0.00 0.00 72 1003.5
20260505122804 12 1 4.8 16.1 0.00 0.00 0.00 70 1003.5
20260505122704 12 349 4.8 16.1 0.00 0.00 0.00 72 1003.5
20260505122604 12 348 4.8 16.1 0.00 0.00 0.00 72 1003.4
20260505122504 12 332 4.8 16.1 0.00 0.00 0.00 71 1003.6
20260505122404 12 322 4.8 16.1 0.00 0.00 0.00 71 1003.6
20260505122305 12 314 4.8 16.1 0.00 0.00 0.00 71 1003.3
20260505122204 12 295 3.2 16.1 0.00 0.00 0.00 70 1003.6
20260505122104 12 279 3.2 12.9 0.00 0.00 0.00 70 1003.2
20260505122004 12 275 3.2 12.9 0.00 0.00 0.00 71 1003.6
20260505121904 12 281 3.2 12.9 0.00 0.00 0.00 71 1003.6
20260505121804 12 286 3.2 12.9 0.00 0.00 0.00 71 1003.5
20260505121704 12 296 3.2 12.9 0.00 0.00 0.00 72 1003.5
20260505121604 12 291 3.2 12.9 0.00 0.00 0.00 71 1003.6
20260505121504 12 295 3.2 12.9 0.00 0.00 0.00 70 1003.6
20260505121404 12 293 3.2 12.9 0.00 0.00 0.00 72 1003.6
20260505121304 12 280 3.2 14.5 0.00 0.00 0.00 71 1003.5
20260505121225 12 279 4.8 14.5 0.00 0.00 0.00 71 1003.6
20260505121104 12 287 4.8 14.5 0.00 0.00 0.00 68 1003.6
20260505121004 12 290 4.8 14.5 0.00 0.00 0.00 69 1003.6
20260505120904 12 291 4.8 14.5 0.00 0.00 0.00 71 1003.5
20260505120804 12 300 3.2 14.5 0.00 0.00 0.00 70 1003.5
20260505120704 12 297 4.8 14.5 0.00 0.00 0.00 69 1003.5
20260505120604 12 312 3.2 14.5 0.00 0.00 0.00 70 1003.5
20260505120525 12 321 4.8 14.5 0.00 0.00 0.00 69 1003.5
20260505120404 12 354 4.8 14.5 0.00 0.00 0.00 71 1003.5
20260505120304 12 7 4.8 14.5 0.00 0.00 0.00 70 1003.6
20260505120204 12 20 4.8 14.5 0.00 0.00 0.00 69 1003.4
20260505120104 12 27 4.8 14.5 0.00 0.00 0.00 69 1003.4
20260505120005 12 26 4.8 14.5 0.00 0.00 0.00 72 1003.7
20260505115904 12 26 4.8 14.5 0.00 0.00 0.00 70 1003.5
20260505115804 11 26 4.8 14.5 0.00 0.00 0.00 70 1003.5
20260505115725 11 26 6.4 14.5 0.00 0.00 0.00 69 1003.6
20260505115604 11 27 6.4 14.5 0.00 0.00 0.00 70 1003.3
20260505115504 11 28 6.4 14.5 0.00 0.00 0.00 69 1003.5
20260505115404 11 27 6.4 14.5 0.00 0.00 0.00 69 1003.5
20260505115305 12 27 4.8 14.5 0.00 0.00 0.00 68 1003.5
20260505115204 11 26 4.8 14.5 0.00 0.00 0.00 69 1003.3
20260505115125 11 27 4.8 14.5 0.00 0.00 0.00 69 1003.5
20260505115004 11 30 4.8 14.5 0.00 0.00 0.00 67 1003.6
20260505114925 11 30 6.4 14.5 0.00 0.00 0.00 66 1003.5
20260505114825 11 28 4.8 12.9 0.00 0.00 0.00 68 1003.4
20260505114704 11 23 4.8 12.9 0.00 0.00 0.00 68 1003.5
20260505114604 11 25 4.8 12.9 0.00 0.00 0.00 68 1003.7
20260505114504 11 21 6.4 12.9 0.00 0.00 0.00 67 1003.5
20260505114404 11 21 4.8 12.9 0.00 0.00 0.00 68 1003.6
20260505114304 11 22 6.4 12.9 0.00 0.00 0.00 66 1003.5
20260505114204 11 23 4.8 12.9 0.00 0.00 0.00 68 1003.4
20260505114104 11 24 4.8 12.9 0.00 0.00 0.00 68 1003.4
20260505114004 11 21 6.4 12.9 0.00 0.00 0.00 68 1003.7
20260505113904 11 20 4.8 12.9 0.00 0.00 0.00 67 1003.6
20260505113804 11 20 4.8 12.9 0.00 0.00 0.00 68 1003.4
20260505113704 11 20 4.8 12.9 0.00 0.00 0.00 67 1003.4
20260505113604 11 21 4.8 11.3 0.00 0.00 0.00 66 1003.5
20260505113504 12 20 4.8 11.3 0.00 0.00 0.00 65 1003.5
20260505113404 12 20 4.8 11.3 0.00 0.00 0.00 64 1003.4
20260505113304 12 20 4.8 11.3 0.00 0.00 0.00 65 1003.7
20260505113225 12 19 4.8 11.3 0.00 0.00 0.00 66 1003.5
20260505113104 12 20 4.8 14.5 0.00 0.00 0.00 68 1003.5
20260505113004 11 23 4.8 14.5 0.00 0.00 0.00 69 1003.4
20260505112904 11 27 6.4 14.5 0.00 0.00 0.00 69 1003.6
20260505112804 11 28 6.4 14.5 0.00 0.00 0.00 70 1003.5
20260505112704 11 30 6.4 14.5 0.00 0.00 0.00 70 1003.6
20260505112604 11 30 6.4 14.5 0.00 0.00 0.00 71 1003.6
20260505112504 11 31 6.4 14.5 0.00 0.00 0.00 71 1003.4
20260505112403 11 30 6.4 14.5 0.00 0.00 0.00 70 1003.5
20260505112305 11 31 6.4 14.5 0.00 0.00 0.00 69 1003.4
20260505112204 11 31 6.4 14.5 0.00 0.00 0.00 70 1003.6
20260505112104 11 33 6.4 14.5 0.00 0.00 0.00 70 1003.5
20260505112004 11 31 4.8 14.5 0.00 0.00 0.00 71 1003.5
20260505111904 11 25 4.8 14.5 0.00 0.00 0.00 70 1003.5
20260505111804 11 24 6.4 14.5 0.00 0.00 0.00 70 1003.5
20260505111704 11 25 6.4 14.5 0.00 0.00 0.00 70 1003.7
20260505111604 11 24 6.4 14.5 0.00 0.00 0.00 71 1003.4
20260505111504 11 24 6.4 12.9 0.00 0.00 0.00 72 1003.5
20260505111404 11 20 6.4 17.7 0.00 0.00 0.00 71 1003.4
20260505111304 11 18 6.4 17.7 0.00 0.00 0.00 69 1003.4
20260505111204 11 21 4.8 17.7 0.00 0.00 0.00 73 1003.5
20260505111104 11 12 4.8 17.7 0.00 0.00 0.00 71 1003.7
20260505111004 12 8 4.8 17.7 0.00 0.00 0.00 71 1003.7
20260505110904 12 9 4.8 17.7 0.00 0.00 0.00 69 1003.3
20260505110804 12 9 4.8 17.7 0.00 0.00 0.00 69 1003.7
20260505110704 12 9 3.2 17.7 0.00 0.00 0.00 72 1003.6
20260505110604 12 8 3.2 17.7 0.00 0.00 0.00 71 1003.5
20260505110504 12 8 3.2 17.7 0.00 0.00 0.00 68 1003.5
20260505110404 12 5 3.2 17.7 0.00 0.00 0.00 70 1003.5
20260505110304 12 355 3.2 12.9 0.00 0.00 0.00 70 1003.4
20260505110225 12 351 3.2 12.9 0.00 0.00 0.00 70 1003.5
20260505110104 12 324 3.2 12.9 0.00 0.00 0.00 70 1003.6
20260505102204 11 338 4.8 11.3 0.00 0.00 0.00 76 1003.6
20260505102104 11 337 4.8 11.3 0.00 0.00 0.00 76 1003.7
20260505102025 11 339 4.8 11.3 0.00 0.00 0.00 75 1003.6
20260505101904 11 354 4.8 11.3 0.00 0.00 0.00 77 1003.6
20260505101804 11 349 4.8 12.9 0.00 0.00 0.00 75 1003.7
20260505101725 11 348 4.8 12.9 0.00 0.00 0.00 75 1003.8
20260505101604 11 306 3.2 12.9 0.00 0.00 0.00 73 1003.8
20260505101504 11 292 3.2 12.9 0.00 0.00 0.00 77 1003.7
20260505101404 11 286 4.8 12.9 0.00 0.00 0.00 77 1003.5
20260505101304 11 290 4.8 12.9 0.00 0.00 0.00 76 1003.8
20260505101204 11 289 4.8 12.9 0.00 0.00 0.00 75 1003.8
20260505101104 11 286 4.8 12.9 0.00 0.00 0.00 76 1003.5
20260505101004 11 290 4.8 12.9 0.00 0.00 0.00 77 1003.7
20260505100904 11 295 4.8 12.9 0.00 0.00 0.00 78 1003.7
20260505100804 10 290 4.8 12.9 0.00 0.00 0.00 78 1003.9
20260505100704 10 288 4.8 12.9 0.00 0.00 0.00 77 1003.8
20260505100604 10 291 4.8 12.9 0.00 0.00 0.00 77 1003.9
20260505100504 11 291 4.8 12.9 0.00 0.00 0.00 77 1003.9
20260505100404 11 304 3.2 12.9 0.00 0.00 0.00 77 1003.8
20260505100304 11 318 4.8 16.1 0.00 0.00 0.00 75 1003.6
20260505100204 11 339 3.2 16.1 0.00 0.00 0.00 76 1003.9
20260505100104 11 339 4.8 16.1 0.00 0.00 0.00 79 1003.7
20260505100004 11 337 4.8 16.1 0.00 0.00 0.00 79 1003.5
20260505095904 11 335 4.8 16.1 0.00 0.00 0.00 78 1003.7
20260505095804 11 351 3.2 16.1 0.00 0.00 0.00 78 1003.7
20260505095704 11 1 3.2 16.1 0.00 0.00 0.00 78 1003.6
20260505095604 10 9 3.2 16.1 0.00 0.00 0.00 78 1003.7
20260505095504 10 14 4.8 16.1 0.00 0.00 0.00 78 1003.6
20260505095404 11 17 4.8 16.1 0.00 0.00 0.00 77 1003.6
20260505095305 11 19 4.8 16.1 0.00 0.00 0.00 77 1003.6
20260505095204 11 18 3.2 16.1 0.00 0.00 0.00 76 1003.7
20260505095103 11 31 3.2 9.7 0.00 0.00 0.00 77 1003.7
20260505095004 11 33 3.2 9.7 0.00 0.00 0.00 78 1003.8
20260505094903 11 30 3.2 9.7 0.00 0.00 0.00 78 1003.5
20260505094804 11 30 3.2 9.7 0.00 0.00 0.00 79 1003.6
20260505094704 11 30 3.2 9.7 0.00 0.00 0.00 79 1003.6
20260505094604 11 28 3.2 9.7 0.00 0.00 0.00 78 1003.6
20260505094525 11 27 3.2 9.7 0.00 0.00 0.00 78 1003.6
20260505094404 11 18 3.2 6.4 0.00 0.00 0.00 77 1003.6
20260505094325 11 13 3.2 6.4 0.00 0.00 0.00 76 1003.7
20260505094225 11 21 3.2 6.4 0.00 0.00 0.00 76 1003.6
20260505094104 11 24 3.2 6.4 0.00 0.00 0.00 77 1003.7
20260505094003 11 24 3.2 6.4 0.00 0.00 0.00 78 1003.7
20260505093904 11 24 3.2 6.4 0.00 0.00 0.00 77 1003.7
20260505093804 11 19 3.2 6.4 0.00 0.00 0.00 78 1003.7
20260505093704 11 20 3.2 6.4 0.00 0.00 0.00 78 1003.6
20260505093604 11 22 3.2 6.4 0.00 0.00 0.00 80 1003.7
20260505093504 10 28 3.2 6.4 0.00 0.00 0.00 82 1003.7
20260505093404 10 29 3.2 6.4 0.00 0.00 0.00 82 1003.8
20260505093304 10 23 1.6 6.4 0.00 0.00 0.00 82 1003.8
20260505093204 10 26 1.6 6.4 0.00 0.00 0.00 81 1003.9
20260505093104 10 23 1.6 6.4 0.00 0.00 0.00 80 1003.8
20260505093004 11 20 1.6 6.4 0.00 0.00 0.00 81 1003.5
20260505092904 11 20 1.6 6.4 0.00 0.00 0.00 81 1003.9
20260505092804 11 29 1.6 6.4 0.00 0.00 0.00 81 1003.7
20260505092725 11 24 3.2 6.4 0.00 0.00 0.00 82 1004.1
20260505092603 11 24 1.6 11.3 0.00 0.00 0.00 82 1003.7
20260505092504 11 22 3.2 11.3 0.00 0.00 0.00 82 1003.9
20260505092403 10 25 3.2 11.3 0.00 0.00 0.00 82 1003.8
20260505092305 10 28 3.2 11.3 0.00 0.00 0.00 83 1003.7
20260505092204 10 24 3.2 11.3 0.00 0.00 0.00 82 1003.5
20260505092104 10 22 3.2 11.3 0.00 0.00 0.00 82 1003.8
20260505092004 10 21 3.2 11.3 0.00 0.00 0.00 82 1003.8
20260505091925 10 21 3.2 11.3 0.00 0.00 0.00 82 1003.9
20260505091804 10 22 3.2 11.3 0.00 0.00 0.00 82 1003.6
20260505091704 10 21 3.2 11.3 0.00 0.00 0.00 82 1003.8
20260505091604 10 21 3.2 11.3 0.00 0.00 0.00 82 1003.8
20260505091504 10 21 3.2 11.3 0.00 0.00 0.00 82 1003.6
20260505091425 10 22 3.2 11.3 0.00 0.00 0.00 82 1003.7
20260505091304 10 22 3.2 11.3 0.00 0.00 0.00 82 1003.8
20260505091204 10 22 3.2 11.3 0.00 0.00 0.00 83 1003.9
20260505091104 10 24 3.2 11.3 0.00 0.00 0.00 81 1003.6
20260505091004 10 26 3.2 11.3 0.00 0.00 0.00 82 1003.7
20260505090904 10 29 1.6 9.7 0.00 0.00 0.00 83 1003.7
20260505090804 10 28 1.6 9.7 0.00 0.00 0.00 83 1003.6
20260505090704 10 29 1.6 9.7 0.00 0.00 0.00 83 1003.7
20260505090625 10 29 1.6 9.7 0.00 0.00 0.00 83 1003.8
20260505090504 10 31 1.6 9.7 0.00 0.00 0.00 82 1004.0
20260505090425 10 32 1.6 9.7 0.00 0.00 0.00 83 1003.5
20260505090303 10 32 1.6 9.7 0.00 0.00 0.00 83 1003.9
20260505090204 10 30 1.6 9.7 0.00 0.00 0.00 83 1003.7
20260505090104 10 32 1.6 9.7 0.00 0.00 0.00 83 1003.7
20260505090004 10 32 1.6 9.7 0.00 0.00 0.00 83 1003.8
20260505085904 10 31 1.6 9.7 0.00 0.00 0.00 83 1003.7
20260505085804 10 21 1.6 9.7 0.00 0.00 0.00 82 1003.7
20260505085704 10 14 1.6 9.7 0.00 0.00 0.00 82 1003.8
20260505085604 10 10 1.6 9.7 0.00 0.00 0.00 81 1003.7
20260505085504 10 5 1.6 6.4 0.00 0.00 0.00 82 1003.8
20260505085404 10 344 1.6 6.4 0.00 0.00 0.00 82 1003.6
20260505085305 10 340 1.6 6.4 0.00 0.00 0.00 81 1003.8
20260505085204 10 342 1.6 6.4 0.00 0.00 0.00 81 1003.8
20260505085104 10 339 1.6 6.4 0.00 0.00 0.00 81 1003.7
20260505085004 10 348 1.6 6.4 0.00 0.00 0.00 81 1003.9
20260505084904 10 352 1.6 6.4 0.00 0.00 0.00 81 1003.8
20260505084804 10 354 1.6 6.4 0.00 0.00 0.00 82 1003.8
20260505084725 10 357 1.6 6.4 0.00 0.00 0.00 82 1003.6
20260505084604 10 356 3.2 6.4 0.00 0.00 0.00 82 1003.7
20260505084503 10 348 3.2 6.4 0.00 0.00 0.00 81 1003.7
20260505084404 10 357 1.6 6.4 0.00 0.00 0.00 82 1003.6
20260505084303 10 358 1.6 6.4 0.00 0.00 0.00 82 1003.7
20260505084204 10 358 1.6 6.4 0.00 0.00 0.00 83 1003.8
20260505084125 10 354 1.6 6.4 0.00 0.00 0.00 82 1003.8
20260505084004 10 7 1.6 9.7 0.00 0.00 0.00 83 1003.8
20260505083904 10 4 3.2 9.7 0.00 0.00 0.00 83 1003.6
20260505083804 10 6 3.2 9.7 0.00 0.00 0.00 83 1003.9
20260505083724 10 9 3.2 9.7 0.00 0.00 0.00 84 1003.7
20260505083625 10 14 3.2 9.7 0.00 0.00 0.00 84 1003.7
20260505083503 10 20 3.2 9.7 0.00 0.00 0.00 84 1003.9
20260505083425 10 20 3.2 9.7 0.00 0.00 0.00 84 1003.7
20260505083303 10 23 3.2 9.7 0.00 0.00 0.00 84 1003.9
20260505083204 10 25 3.2 9.7 0.00 0.00 0.00 84 1003.9
20260505083104 10 27 3.2 9.7 0.00 0.00 0.00 83 1004.0
20260505083004 10 28 3.2 9.7 0.00 0.00 0.00 83 1003.7
20260505082904 10 36 3.2 9.7 0.00 0.00 0.00 82 1003.9
20260505082804 10 35 4.8 9.7 0.00 0.00 0.00 82 1003.8
20260505082703 10 33 4.8 11.3 0.00 0.00 0.00 82 1003.9
20260505082625 10 34 4.8 11.3 0.00 0.00 0.00 81 1003.8
20260505082525 10 30 4.8 11.3 0.00 0.00 0.00 82 1003.8
20260505082404 10 29 4.8 11.3 0.00 0.00 0.00 82 1003.9
20260505082304 10 29 4.8 11.3 0.00 0.00 0.00 82 1003.7
20260505082225 10 27 4.8 11.3 0.00 0.00 0.00 82 1003.9
20260505082104 9 27 4.8 11.3 0.00 0.00 0.00 81 1004.0
20260505082004 9 22 4.8 11.3 0.00 0.00 0.00 81 1004.0
20260505081904 9 17 4.8 11.3 0.00 0.00 0.00 81 1004.0
20260505081804 9 17 4.8 11.3 0.00 0.00 0.00 82 1003.9
20260505081704 10 16 4.8 11.3 0.00 0.00 0.00 82 1003.8
20260505081604 10 19 4.8 11.3 0.00 0.00 0.00 83 1003.9
20260505081504 9 18 4.8 11.3 0.00 0.00 0.00 84 1003.9
20260505081404 9 20 4.8 11.3 0.00 0.00 0.00 83 1003.9
20260505081304 9 23 4.8 11.3 0.00 0.00 0.00 83 1003.9
20260505081204 9 23 4.8 11.3 0.00 0.00 0.00 82 1003.8
20260505081104 9 22 4.8 11.3 0.00 0.00 0.00 82 1003.8
20260505081003 9 24 4.8 11.3 0.00 0.00 0.00 82 1003.8
20260505080904 9 25 4.8 11.3 0.00 0.00 0.00 83 1003.8
20260505080803 9 28 4.8 11.3 0.00 0.00 0.00 82 1003.9
20260505080704 9 27 4.8 12.9 0.00 0.00 0.00 83 1003.9
20260505080604 9 25 4.8 12.9 0.00 0.00 0.00 83 1003.8
20260505080504 9 25 4.8 12.9 0.00 0.00 0.00 83 1003.8
20260505080403 9 22 4.8 12.9 0.00 0.00 0.00 83 1003.9
20260505080304 9 20 6.4 12.9 0.00 0.00 0.00 83 1003.9
20260505080203 9 18 6.4 14.5 0.00 0.00 0.00 83 1003.7
20260505080104 9 19 6.4 14.5 0.00 0.00 0.00 83 1003.7
20260505080004 9 17 6.4 14.5 0.00 0.00 0.00 83 1003.8
20260505075904 9 19 6.4 14.5 0.00 0.00 0.00 83 1003.9
20260505075803 9 20 6.4 14.5 0.00 0.00 0.00 83 1003.9
20260505075704 9 25 6.4 14.5 0.00 0.00 0.00 83 1004.0
20260505075603 9 25 6.4 14.5 0.00 0.00 0.00 83 1004.0
20260505075504 9 28 6.4 14.5 0.00 0.00 0.00 83 1003.9
20260505075404 9 32 6.4 14.5 0.00 0.00 0.00 83 1003.7
20260505075304 9 34 6.4 14.5 0.00 0.00 0.00 83 1003.7
20260505075204 9 33 6.4 14.5 0.00 0.00 0.00 82 1004.1
20260505075104 9 33 6.4 14.5 0.00 0.00 0.00 82 1003.9
20260505075003 9 36 6.4 14.5 0.00 0.00 0.00 82 1003.8
20260505074904 9 35 6.4 14.5 0.00 0.00 0.00 82 1003.9
20260505074804 9 35 6.4 14.5 0.00 0.00 0.00 82 1003.7
20260505074704 9 31 6.4 14.5 0.00 0.00 0.00 82 1003.7
20260505074604 9 33 4.8 14.5 0.00 0.00 0.00 82 1003.8
20260505074504 9 33 4.8 12.9 0.00 0.00 0.00 83 1003.6
20260505074424 9 32 4.8 12.9 0.00 0.00 0.00 83 1003.8
20260505074304 9 33 4.8 12.9 0.00 0.00 0.00 83 1004.1
20260505074204 9 34 4.8 12.9 0.00 0.00 0.00 84 1003.9
20260505074104 9 33 4.8 12.9 0.00 0.00 0.00 84 1003.9
20260505074004 9 31 4.8 9.7 0.00 0.00 0.00 85 1003.8
20260505073904 9 31 4.8 9.7 0.00 0.00 0.00 86 1003.9
20260505073804 8 32 4.8 9.7 0.00 0.00 0.00 86 1003.7
20260505073703 8 31 4.8 9.7 0.00 0.00 0.00 87 1003.7
20260505073604 8 33 4.8 9.7 0.00 0.00 0.00 87 1003.7
20260505073504 8 30 4.8 12.9 0.00 0.00 0.00 88 1003.8
20260505073404 8 30 4.8 12.9 0.00 0.00 0.00 88 1003.9
20260505073303 8 24 4.8 14.5 0.00 0.00 0.00 89 1003.6
20260505073204 8 24 6.4 14.5 0.00 0.00 0.00 89 1004.0
20260505073103 8 25 6.4 14.5 0.00 0.00 0.00 89 1004.0
20260505073004 8 28 4.8 14.5 0.00 0.00 0.00 90 1003.9
20260505072903 8 27 4.8 14.5 0.00 0.00 0.00 90 1003.8
20260505072825 8 26 4.8 14.5 0.00 0.00 0.00 90 1003.9
20260505072703 8 25 6.4 20.9 0.00 0.00 0.00 90 1003.6
20260505072625 8 21 6.4 20.9 0.00 0.00 0.00 90 1003.9
20260505072503 8 21 6.4 20.9 0.00 0.00 0.00 90 1003.9
20260505072404 8 23 6.4 20.9 0.00 0.00 0.00 90 1003.8
20260505072305 8 24 6.4 20.9 0.00 0.00 0.00 90 1003.7
20260505072225 8 24 6.4 20.9 0.00 0.00 0.00 90 1003.6
20260505072104 8 25 6.4 20.9 0.00 0.00 0.00 91 1003.8
20260505072004 8 24 6.4 20.9 0.00 0.00 0.00 91 1003.9
20260505071925 8 27 6.4 20.9 0.00 0.00 0.00 91 1003.8
20260505071804 8 24 8.0 20.9 0.00 0.00 0.00 91 1003.9
20260505071703 8 25 8.0 20.9 0.00 0.00 0.00 90 1004.0
20260505071604 8 28 6.4 16.1 0.00 0.00 0.00 90 1003.9
20260505071524 8 27 6.4 16.1 0.00 0.00 0.00 90 1003.8
20260505071404 8 24 6.4 16.1 0.00 0.00 0.00 90 1003.7
20260505071304 8 23 6.4 16.1 0.00 0.00 0.00 90 1004.0
20260505071203 8 24 6.4 16.1 0.00 0.00 0.00 90 1003.9
20260505071104 8 22 6.4 16.1 0.00 0.00 0.00 90 1004.0
20260505071003 8 25 6.4 16.1 0.00 0.00 0.00 90 1003.5
20260505070904 8 28 6.4 14.5 0.00 0.00 0.00 89 1003.7
20260505070803 8 27 6.4 14.5 0.00 0.00 0.00 89 1003.7
20260505070704 9 31 4.8 14.5 0.00 0.00 0.00 89 1003.9
20260505070604 9 31 4.8 14.5 0.00 0.00 0.00 89 1003.7
20260505070525 8 31 4.8 11.3 0.00 0.00 0.00 90 1003.8
20260505070403 8 31 4.8 11.3 0.00 0.00 0.00 89 1003.6
20260505070325 8 30 4.8 11.3 0.00 0.00 0.00 89 1003.8
20260505070203 8 30 4.8 11.3 0.00 0.00 0.00 89 1003.7
20260505070104 9 31 4.8 11.3 0.00 0.00 0.00 89 1003.8
20260505070004 9 27 4.8 11.3 0.00 0.00 0.00 89 1003.8
20260505065904 9 19 4.8 11.3 0.00 0.00 0.00 90 1003.7
20260505065804 9 24 4.8 11.3 0.00 0.00 0.00 90 1003.6
20260505065704 9 23 4.8 11.3 0.00 0.00 0.00 90 1003.7
20260505065603 9 22 4.8 11.3 0.00 0.00 0.00 90 1003.7
20260505065504 9 26 4.8 9.7 0.00 0.00 0.00 90 1003.6
20260505065404 9 25 4.8 9.7 0.00 0.00 0.00 90 1003.6
20260505065304 8 26 3.2 9.7 0.00 0.00 0.00 90 1003.5
20260505065204 8 29 3.2 9.7 0.00 0.00 0.00 90 1003.9
20260505065104 8 31 3.2 9.7 0.00 0.00 0.00 90 1003.7
20260505065003 8 33 3.2 9.7 0.00 0.00 0.00 90 1003.7
20260505064904 8 34 3.2 9.7 0.00 0.00 0.00 90 1003.6
20260505064803 8 34 3.2 9.7 0.00 0.00 0.00 90 1003.7
20260505064704 8 32 3.2 9.7 0.00 0.00 0.00 90 1003.7
20260505064603 8 35 3.2 9.7 0.00 0.00 0.00 90 1003.8
20260505064525 8 32 3.2 9.7 0.00 0.00 0.00 90 1003.7
20260505064425 8 39 3.2 6.4 0.00 0.00 0.00 90 1003.8
20260505064324 8 41 3.2 6.4 0.00 0.00 0.00 90 1003.9
20260505064204 8 36 3.2 6.4 0.00 0.00 0.00 90 1003.6
20260505064103 8 32 3.2 6.4 0.00 0.00 0.00 90 1003.8
20260505064004 8 34 3.2 6.4 0.00 0.00 0.00 90 1003.5
20260505063924 8 33 3.2 6.4 0.00 0.00 0.00 90 1003.7
20260505063825 8 32 3.2 6.4 0.00 0.00 0.00 90 1003.7
20260505063703 8 36 3.2 6.4 0.00 0.00 0.00 90 1003.6
20260505063604 8 42 3.2 12.9 0.00 0.00 0.00 89 1003.7
20260505063503 8 35 3.2 12.9 0.00 0.00 0.00 89 1003.9
20260505063403 8 33 3.2 12.9 0.00 0.00 0.00 89 1003.9
20260505063304 8 35 3.2 12.9 0.00 0.00 0.00 89 1003.6
20260505063203 8 33 3.2 12.9 0.00 0.00 0.00 89 1003.7
20260505063104 8 32 3.2 12.9 0.00 0.00 0.00 89 1003.7
20260505063024 8 30 3.2 12.9 0.00 0.00 0.00 89 1003.5
20260505062904 8 29 3.2 12.9 0.00 0.00 0.00 89 1004.0
20260505062803 8 25 3.2 12.9 0.00 0.00 0.00 89 1003.8
20260505062704 8 14 3.2 12.9 0.00 0.00 0.00 89 1003.9
20260505062625 8 12 3.2 12.9 0.00 0.00 0.00 89 1003.7
20260505062504 8 15 3.2 9.7 0.00 0.00 0.00 89 1003.6
20260505062424 8 19 3.2 9.7 0.00 0.00 0.00 89 1003.6
20260505062325 8 23 3.2 9.7 0.00 0.00 0.00 89 1003.6
20260505062203 9 11 1.6 9.7 0.00 0.00 0.00 89 1003.7
20260505062104 9 8 1.6 9.7 0.00 0.00 0.00 89 1003.6
20260505062025 9 4 1.6 9.7 0.00 0.00 0.00 89 1003.7
20260505061904 9 353 1.6 9.7 0.00 0.00 0.00 89 1003.6
20260505061825 9 1 1.6 9.7 0.00 0.00 0.00 89 1003.6
20260505061704 9 353 1.6 6.4 0.00 0.00 0.00 89 1003.8
20260505061603 9 343 1.6 6.4 0.00 0.00 0.00 89 1003.5
20260505061504 9 334 1.6 6.4 0.00 0.00 0.00 89 1003.7
20260505061404 9 329 1.6 6.4 0.00 0.00 0.00 89 1003.5
20260505061304 9 323 3.2 6.4 0.00 0.00 0.00 89 1003.5
20260505061204 9 323 3.2 6.4 0.00 0.00 0.00 89 1003.6
20260505061125 9 318 3.2 6.4 0.00 0.00 0.00 89 1003.4
20260505061004 9 313 3.2 6.4 0.00 0.00 0.00 89 1003.5
20260505060904 9 308 1.6 6.4 0.00 0.00 0.00 89 1003.4
20260505060803 9 294 1.6 6.4 0.00 0.00 0.00 89 1003.3
20260505060704 9 302 1.6 4.8 0.00 0.00 0.00 89 1003.2
20260505060604 9 302 1.6 4.8 0.00 0.00 0.00 89 1003.3
20260505060504 9 311 1.6 4.8 0.00 0.00 0.00 89 1003.4
20260505060404 9 311 1.6 4.8 0.00 0.00 0.00 89 1003.4
20260505060304 9 316 1.6 4.8 0.00 0.00 0.00 89 1003.4
20260505060203 9 326 1.6 4.8 0.00 0.00 0.00 89 1003.2
20260505060104 9 340 1.6 4.8 0.00 0.00 0.00 89 1003.3
20260505060004 9 342 1.6 4.8 0.00 0.00 0.00 90 1003.4
20260505055904 9 337 1.6 4.8 0.00 0.00 0.00 91 1003.5
20260505055804 9 351 1.6 6.4 0.00 0.00 0.00 91 1003.5
20260505055703 9 350 1.6 6.4 0.00 0.00 0.00 92 1003.4
20260505055604 9 351 1.6 6.4 0.00 0.00 0.00 92 1003.5
20260505055503 9 351 1.6 6.4 0.00 0.00 0.00 93 1003.4
20260505055404 8 353 1.6 6.4 0.00 0.00 0.00 93 1003.3
20260505055304 8 358 1.6 6.4 0.00 0.00 0.00 93 1003.4
20260505055204 8 357 1.6 6.4 0.00 0.00 0.00 93 1003.3
20260505055103 8 356 1.6 6.4 0.00 0.00 0.00 93 1003.5
20260505055004 8 357 1.6 6.4 0.00 0.00 0.00 93 1003.5
20260505054903 8 358 1.6 6.4 0.00 0.00 0.00 93 1003.4
20260505054804 8 358 1.6 6.4 0.00 0.00 0.00 93 1003.3
20260505054703 8 359 3.2 6.4 0.00 0.00 0.00 93 1003.5
20260505054604 8 357 1.6 6.4 0.00 0.00 0.00 93 1003.2
20260505054504 8 354 1.6 6.4 0.00 0.00 0.00 94 1003.5
20260505054404 8 353 1.6 6.4 0.00 0.00 0.00 93 1003.6
20260505054303 8 352 1.6 6.4 0.00 0.00 0.00 94 1003.4
20260505054204 8 345 1.6 6.4 0.00 0.00 0.00 94 1003.3
20260505054124 8 337 1.6 6.4 0.00 0.00 0.00 94 1003.4
20260505054004 8 304 1.6 6.4 0.00 0.00 0.00 94 1003.5
20260505053924 8 295 1.6 6.4 0.00 0.00 0.00 94 1003.3
20260505053804 8 259 0.0 6.4 0.00 0.00 0.00 94 1003.3
20260505053703 8 246 0.0 3.2 0.00 0.00 0.00 94 1003.3
20260505053604 8 250 0.0 3.2 0.00 0.00 0.00 94 1003.4
20260505053503 8 263 0.0 3.2 0.00 0.00 0.00 94 1003.5
20260505053425 8 275 0.0 3.2 0.00 0.00 0.00 94 1003.4
20260505053304 8 296 0.0 3.2 0.00 0.00 0.00 94 1003.3
20260505053204 8 323 0.0 3.2 0.00 0.00 0.00 94 1003.1
20260505053104 8 346 0.0 3.2 0.00 0.00 0.00 94 1003.2
20260505053004 8 360 0.0 1.6 0.00 0.00 0.00 94 1003.3
20260505052904 8 360 0.0 1.6 0.00 0.00 0.00 94 1003.3
20260505052825 8 360 0.0 1.6 0.00 0.00 0.00 94 1003.4
20260505052725 8 360 0.0 1.6 0.00 0.00 0.00 94 1003.1
20260505052603 8 360 0.0 3.2 0.00 0.00 0.00 94 1003.2
20260505052504 8 360 0.0 3.2 0.00 0.00 0.00 94 1003.3
20260505052403 8 360 0.0 3.2 0.00 0.00 0.00 94 1003.3
20260505052304 8 360 0.0 3.2 0.00 0.00 0.00 94 1003.2
20260505052203 8 360 0.0 3.2 0.00 0.00 0.00 94 1003.3
20260505052104 8 360 0.0 3.2 0.00 0.00 0.00 94 1003.3
20260505052024 8 360 0.0 3.2 0.00 0.00 0.00 94 1003.2